Wetterdaten: Sonntag, 26.03.2017
Datum Zeit Temp. Aussen Temp. o. S. +5cm Feuchte Auss BlattFeu 1 Luftdruck Regen Sonnenschein Regendauer Solar Windben Empfang
26.03.2017 00:00 8,7 C 8,3 C 6,1 C 63 % 0 lf 1023,5 hPa 0,0 l/m 0 min 0 min 0 W/m 25,1 km/h (4 Bft) 89,36 %
26.03.2017 00:02 8,7 C 8,3 C 6,1 C 63 % 0 lf 1023,6 hPa 0,0 l/m 0 min 0 min 0 W/m 27,2 km/h (4 Bft) 95,35 %
26.03.2017 00:04 8,7 C 8,3 C 6,1 C 63 % 0 lf 1023,6 hPa 0,0 l/m 0 min 0 min 0 W/m 31,4 km/h (5 Bft) 89,13 %
26.03.2017 00:06 8,6 C 8,3 C 6,1 C 63 % 0 lf 1023,5 hPa 0,0 l/m 0 min 0 min 0 W/m 31,4 km/h (5 Bft) 97,87 %
26.03.2017 00:10 8,6 C 8,3 C 6,1 C 64 % 0 lf 1023,6 hPa 0,0 l/m 0 min 0 min 0 W/m 31,4 km/h (5 Bft) 94,79 %
26.03.2017 00:12 8,6 C 8,3 C 6,1 C 64 % 0 lf 1023,5 hPa 0,0 l/m 0 min 0 min 0 W/m 31,4 km/h (5 Bft) 89,36 %
26.03.2017 00:14 8,5 C 8,3 C 6,1 C 64 % 0 lf 1023,6 hPa 0,0 l/m 0 min 0 min 0 W/m 31,4 km/h (5 Bft) 95,74 %
26.03.2017 00:16 8,5 C 8,3 C 6,1 C 65 % 0 lf 1023,6 hPa 0,0 l/m 0 min 0 min 0 W/m 29,3 km/h (5 Bft) 97,83 %
26.03.2017 00:18 8,5 C 8,3 C 6,1 C 65 % 0 lf 1023,6 hPa 0,0 l/m 0 min 0 min 0 W/m 31,4 km/h (5 Bft) 87,23 %
26.03.2017 00:20 8,5 C 8,3 C 6,1 C 65 % 0 lf 1023,6 hPa 0,0 l/m 0 min 0 min 0 W/m 27,2 km/h (4 Bft) 95,74 %
26.03.2017 00:22 8,4 C 8,3 C 6,1 C 65 % 0 lf 1023,7 hPa 0,0 l/m 0 min 0 min 0 W/m 31,4 km/h (5 Bft) 95,74 %
26.03.2017 00:24 8,4 C 8,3 C 6,1 C 66 % 0 lf 1023,6 hPa 0,0 l/m 0 min 0 min 0 W/m 25,1 km/h (4 Bft) 95,74 %
26.03.2017 00:26 8,4 C 8,3 C 6,1 C 66 % 0 lf 1023,6 hPa 0,0 l/m 0 min 0 min 0 W/m 29,3 km/h (5 Bft) 93,48 %
26.03.2017 00:28 8,4 C 8,3 C 6,1 C 66 % 0 lf 1023,6 hPa 0,0 l/m 0 min 0 min 0 W/m 27,2 km/h (4 Bft) 93,62 %
26.03.2017 00:30 8,4 C 7,8 C 6,1 C 66 % 0 lf 1023,5 hPa 0,0 l/m 0 min 0 min 0 W/m 18,8 km/h (3 Bft) 93,62 %
26.03.2017 00:32 8,4 C 7,8 C 6,1 C 66 % 0 lf 1023,5 hPa 0,0 l/m 0 min 0 min 0 W/m 25,1 km/h (4 Bft) 95,74 %
26.03.2017 00:34 8,3 C 7,8 C 6,1 C 66 % 0 lf 1023,5 hPa 0,0 l/m 0 min 0 min 0 W/m 23,0 km/h (4 Bft) 93,62 %
26.03.2017 00:36 8,3 C 7,8 C 5,6 C 67 % 0 lf 1023,5 hPa 0,0 l/m 0 min 0 min 0 W/m 18,8 km/h (3 Bft) 95,74 %
26.03.2017 00:38 8,3 C 7,8 C 5,6 C 67 % 0 lf 1023,7 hPa 0,0 l/m 0 min 0 min 0 W/m 25,1 km/h (4 Bft) 93,48 %
26.03.2017 00:40 8,3 C 7,8 C 5,6 C 68 % 0 lf 1023,6 hPa 0,0 l/m 0 min 0 min 0 W/m 31,4 km/h (5 Bft) 91,49 %
26.03.2017 00:42 8,3 C 7,8 C 6,1 C 68 % 0 lf 1023,6 hPa 0,0 l/m 0 min 0 min 0 W/m 20,9 km/h (4 Bft) 93,62 %
26.03.2017 00:44 8,2 C 7,8 C 5,6 C 68 % 0 lf 1023,7 hPa 0,0 l/m 0 min 0 min 0 W/m 18,8 km/h (3 Bft) 91,49 %
26.03.2017 00:46 8,2 C 7,8 C 5,6 C 68 % 0 lf 1023,7 hPa 0,0 l/m 0 min 0 min 0 W/m 18,8 km/h (3 Bft) 89,36 %
26.03.2017 00:48 8,2 C 7,8 C 5,6 C 68 % 0 lf 1023,6 hPa 0,0 l/m 0 min 0 min 0 W/m 18,8 km/h (3 Bft) 93,62 %
26.03.2017 00:50 8,2 C 7,8 C 5,6 C 69 % 0 lf 1023,6 hPa 0,0 l/m 0 min 0 min 0 W/m 23,0 km/h (4 Bft) 93,48 %
26.03.2017 00:52 8,1 C 7,8 C 5,6 C 69 % 0 lf 1023,7 hPa 0,0 l/m 0 min 0 min 0 W/m 25,1 km/h (4 Bft) 91,49 %
26.03.2017 00:54 8,1 C 7,8 C 5,6 C 69 % 0 lf 1023,7 hPa 0,0 l/m 0 min 0 min 0 W/m 16,7 km/h (3 Bft) 97,87 %
26.03.2017 00:56 8,1 C 7,8 C 5,6 C 70 % 0 lf 1023,7 hPa 0,0 l/m 0 min 0 min 2 W/m 25,1 km/h (4 Bft) 93,62 %
26.03.2017 00:58 8,1 C 7,8 C 5,6 C 70 % 0 lf 1023,7 hPa 0,0 l/m 0 min 0 min 0 W/m 14,6 km/h (3 Bft) 95,74 %
26.03.2017 01:00 8,1 C 7,8 C 5,6 C 70 % 0 lf 1023,7 hPa 0,0 l/m 0 min 0 min 0 W/m 20,9 km/h (4 Bft) 95,74 %
26.03.2017 01:02 8,0 C 7,8 C 5,0 C 70 % 0 lf 1023,6 hPa 0,0 l/m 0 min 0 min 0 W/m 25,1 km/h (4 Bft) 91,30 %
26.03.2017 01:04 8,0 C 7,8 C 5,6 C 71 % 0 lf 1023,6 hPa 0,0 l/m 0 min 0 min 0 W/m 20,9 km/h (4 Bft) 95,74 %
26.03.2017 01:06 7,9 C 7,8 C 5,6 C 71 % 0 lf 1023,6 hPa 0,0 l/m 0 min 0 min 0 W/m 25,1 km/h (4 Bft) 97,87 %
26.03.2017 01:08 7,9 C 7,8 C 5,6 C 71 % 0 lf 1023,6 hPa 0,0 l/m 0 min 0 min 0 W/m 27,2 km/h (4 Bft) 93,62 %
26.03.2017 01:10 7,9 C 7,8 C 5,0 C 71 % 0 lf 1023,6 hPa 0,0 l/m 0 min 0 min 0 W/m 14,6 km/h (3 Bft) 95,74 %
26.03.2017 01:12 7,9 C 7,2 C 5,6 C 72 % 0 lf 1023,6 hPa 0,0 l/m 0 min 0 min 0 W/m 25,1 km/h (4 Bft) 93,62 %
26.03.2017 01:14 7,8 C 7,2 C 5,6 C 72 % 0 lf 1023,7 hPa 0,0 l/m 0 min 0 min 0 W/m 23,0 km/h (4 Bft) 97,83 %
26.03.2017 01:16 7,8 C 7,2 C 5,0 C 72 % 0 lf 1023,6 hPa 0,0 l/m 0 min 0 min 0 W/m 23,0 km/h (4 Bft) 97,87 %
26.03.2017 01:18 7,8 C 7,2 C 5,0 C 72 % 0 lf 1023,6 hPa 0,0 l/m 0 min 0 min 0 W/m 23,0 km/h (4 Bft) 97,87 %
26.03.2017 01:20 7,8 C 7,2 C 5,0 C 72 % 0 lf 1023,6 hPa 0,0 l/m 0 min 0 min 0 W/m 14,6 km/h (3 Bft) 97,87 %
26.03.2017 01:22 7,7 C 7,2 C 5,0 C 73 % 0 lf 1023,5 hPa 0,0 l/m 0 min 0 min 0 W/m 12,6 km/h (3 Bft) 97,87 %
26.03.2017 01:24 7,7 C 7,2 C 4,4 C 73 % 0 lf 1023,6 hPa 0,0 l/m 0 min 0 min 0 W/m 18,8 km/h (3 Bft) 97,87 %
26.03.2017 01:26 7,7 C 7,2 C 4,4 C 73 % 0 lf 1023,6 hPa 0,0 l/m 0 min 0 min 0 W/m 14,6 km/h (3 Bft) 97,83 %
26.03.2017 01:28 7,7 C 7,2 C 4,4 C 73 % 0 lf 1023,6 hPa 0,0 l/m 0 min 0 min 0 W/m 20,9 km/h (4 Bft) 97,87 %
26.03.2017 01:30 7,6 C 6,7 C 4,4 C 73 % 0 lf 1023,6 hPa 0,0 l/m 0 min 0 min 0 W/m 16,7 km/h (3 Bft) 100,00 %
26.03.2017 01:32 7,6 C 6,7 C 4,4 C 74 % 0 lf 1023,6 hPa 0,0 l/m 0 min 0 min 0 W/m 16,7 km/h (3 Bft) 97,87 %
26.03.2017 01:34 7,6 C 6,7 C 4,4 C 74 % 0 lf 1023,5 hPa 0,0 l/m 0 min 0 min 0 W/m 27,2 km/h (4 Bft) 97,87 %
26.03.2017 01:36 7,5 C 6,7 C 4,4 C 74 % 0 lf 1023,5 hPa 0,0 l/m 0 min 0 min 0 W/m 18,8 km/h (3 Bft) 97,83 %
26.03.2017 01:38 7,5 C 6,7 C 4,4 C 74 % 0 lf 1023,6 hPa 0,0 l/m 0 min 0 min 0 W/m 18,8 km/h (3 Bft) 91,49 %
26.03.2017 01:40 7,4 C 6,7 C 4,4 C 75 % 0 lf 1023,6 hPa 0,0 l/m 0 min 0 min 0 W/m 23,0 km/h (4 Bft) 97,87 %
26.03.2017 01:42 7,4 C 6,7 C 5,0 C 75 % 0 lf 1023,5 hPa 0,0 l/m 0 min 0 min 0 W/m 23,0 km/h (4 Bft) 93,62 %
26.03.2017 01:44 7,4 C 6,7 C 5,0 C 75 % 0 lf 1023,4 hPa 0,0 l/m 0 min 0 min 0 W/m 18,8 km/h (3 Bft) 95,74 %
26.03.2017 01:46 7,3 C 6,7 C 5,0 C 76 % 0 lf 1023,3 hPa 0,0 l/m 0 min 0 min 0 W/m 18,8 km/h (3 Bft) 93,62 %
26.03.2017 01:48 7,3 C 6,7 C 4,4 C 76 % 0 lf 1023,4 hPa 0,0 l/m 0 min 0 min 0 W/m 18,8 km/h (3 Bft) 93,48 %
26.03.2017 01:50 7,3 C 6,7 C 4,4 C 76 % 0 lf 1023,3 hPa 0,0 l/m 0 min 0 min 0 W/m 18,8 km/h (3 Bft) 91,49 %
26.03.2017 01:52 7,2 C 6,7 C 4,4 C 76 % 0 lf 1023,3 hPa 0,0 l/m 0 min 0 min 0 W/m 20,9 km/h (4 Bft) 87,23 %
26.03.2017 01:54 7,2 C 6,7 C 4,4 C 77 % 0 lf 1023,2 hPa 0,0 l/m 0 min 0 min 0 W/m 16,7 km/h (3 Bft) 95,74 %
26.03.2017 01:56 7,2 C 6,7 C 4,4 C 77 % 0 lf 1023,2 hPa 0,0 l/m 0 min 0 min 0 W/m 18,8 km/h (3 Bft) 97,87 %
26.03.2017 01:58 7,2 C 6,7 C 4,4 C 77 % 0 lf 1023,2 hPa 0,0 l/m 0 min 0 min 0 W/m 23,0 km/h (4 Bft) 95,74 %
26.03.2017 03:00 7,1 C 6,7 C 4,4 C 77 % 0 lf 1023,2 hPa 0,0 l/m 0 min 0 min 0 W/m 16,7 km/h (3 Bft) 82,61 %
26.03.2017 03:02 7,1 C 6,7 C 4,4 C 78 % 0 lf 1023,2 hPa 0,0 l/m 0 min 0 min 0 W/m 20,9 km/h (4 Bft) 91,49 %
26.03.2017 03:04 7,1 C 6,7 C 4,4 C 78 % 0 lf 1023,2 hPa 0,0 l/m 0 min 0 min 0 W/m 16,7 km/h (3 Bft) 72,34 %
26.03.2017 03:06 7,1 C 6,7 C 4,4 C 78 % 0 lf 1023,2 hPa 0,0 l/m 0 min 0 min 0 W/m 27,2 km/h (4 Bft) 70,21 %
26.03.2017 03:08 7,0 C 6,7 C 4,4 C 78 % 0 lf 1023,3 hPa 0,0 l/m 0 min 0 min 0 W/m 18,8 km/h (3 Bft) 87,23 %
26.03.2017 03:10 7,0 C 6,7 C 4,4 C 79 % 0 lf 1023,3 hPa 0,0 l/m 0 min 0 min 0 W/m 20,9 km/h (4 Bft) 85,11 %
26.03.2017 03:12 6,9 C 6,7 C 4,4 C 79 % 0 lf 1023,3 hPa 0,0 l/m 0 min 0 min 0 W/m 12,6 km/h (3 Bft) 67,39 %
26.03.2017 03:14 6,9 C 6,1 C 4,4 C 79 % 0 lf 1023,2 hPa 0,0 l/m 0 min 0 min 0 W/m 18,8 km/h (3 Bft) 78,72 %
26.03.2017 03:16 6,9 C 6,1 C 4,4 C 79 % 0 lf 1023,2 hPa 0,0 l/m 0 min 0 min 0 W/m 18,8 km/h (3 Bft) 72,34 %
26.03.2017 03:18 6,9 C 6,1 C 4,4 C 79 % 0 lf 1023,2 hPa 0,0 l/m 0 min 0 min 0 W/m 16,7 km/h (3 Bft) 70,21 %
26.03.2017 03:20 6,9 C 6,1 C 4,4 C 79 % 0 lf 1023,2 hPa 0,0 l/m 0 min 0 min 0 W/m 16,7 km/h (3 Bft) 74,47 %
26.03.2017 03:22 6,9 C 6,1 C 4,4 C 80 % 0 lf 1023,2 hPa 0,0 l/m 0 min 0 min 0 W/m 16,7 km/h (3 Bft) 72,34 %
26.03.2017 03:24 6,8 C 6,1 C 4,4 C 80 % 0 lf 1023,2 hPa 0,0 l/m 0 min 0 min 0 W/m 12,6 km/h (3 Bft) 86,96 %
26.03.2017 03:26 6,8 C 6,1 C 4,4 C 80 % 0 lf 1023,1 hPa 0,0 l/m 0 min 0 min 0 W/m 18,8 km/h (3 Bft) 82,98 %
26.03.2017 03:28 6,8 C 6,1 C 4,4 C 80 % 0 lf 1023,1 hPa 0,0 l/m 0 min 0 min 0 W/m 16,7 km/h (3 Bft) 95,74 %
26.03.2017 03:30 6,7 C 6,1 C 3,9 C 80 % 0 lf 1023,1 hPa 0,0 l/m 0 min 0 min 0 W/m 16,7 km/h (3 Bft) 95,74 %
26.03.2017 03:32 6,7 C 6,1 C 4,4 C 80 % 0 lf 1023,1 hPa 0,0 l/m 0 min 0 min 0 W/m 8,4 km/h (2 Bft) 89,36 %
26.03.2017 03:34 6,7 C 6,1 C 3,9 C 80 % 0 lf 1023,1 hPa 0,0 l/m 0 min 0 min 0 W/m 16,7 km/h (3 Bft) 89,36 %
26.03.2017 03:36 6,7 C 6,1 C 3,9 C 80 % 0 lf 1023,1 hPa 0,0 l/m 0 min 0 min 0 W/m 23,0 km/h (4 Bft) 93,48 %
26.03.2017 03:38 6,7 C 6,1 C 3,9 C 81 % 0 lf 1023,1 hPa 0,0 l/m 0 min 0 min 0 W/m 16,7 km/h (3 Bft) 91,49 %
26.03.2017 03:40 6,6 C 6,1 C 3,9 C 81 % 0 lf 1023,1 hPa 0,0 l/m 0 min 0 min 0 W/m 18,8 km/h (3 Bft) 91,49 %
26.03.2017 03:42 6,6 C 6,1 C 3,9 C 81 % 0 lf 1023,1 hPa 0,0 l/m 0 min 0 min 0 W/m 16,7 km/h (3 Bft) 91,49 %
26.03.2017 03:44 6,6 C 6,1 C 3,9 C 81 % 0 lf 1023,1 hPa 0,0 l/m 0 min 0 min 0 W/m 14,6 km/h (3 Bft) 82,98 %
26.03.2017 03:46 6,6 C 6,1 C 3,9 C 81 % 0 lf 1023,2 hPa 0,0 l/m 0 min 0 min 0 W/m 10,5 km/h (2 Bft) 78,26 %
26.03.2017 03:48 6,6 C 6,1 C 3,9 C 81 % 0 lf 1023,1 hPa 0,0 l/m 0 min 0 min 0 W/m 16,7 km/h (3 Bft) 70,21 %
26.03.2017 03:50 6,5 C 6,1 C 3,9 C 81 % 0 lf 1023,1 hPa 0,0 l/m 0 min 0 min 0 W/m 14,6 km/h (3 Bft) 82,98 %
26.03.2017 03:52 6,5 C 5,6 C 3,9 C 82 % 0 lf 1023,1 hPa 0,0 l/m 0 min 0 min 0 W/m 10,5 km/h (2 Bft) 85,11 %
26.03.2017 03:54 6,5 C 5,6 C 3,9 C 82 % 0 lf 1023,2 hPa 0,0 l/m 0 min 0 min 0 W/m 12,6 km/h (3 Bft) 80,85 %
26.03.2017 03:56 6,4 C 5,6 C 3,9 C 82 % 0 lf 1023,2 hPa 0,0 l/m 0 min 0 min 0 W/m 16,7 km/h (3 Bft) 85,11 %
26.03.2017 03:58 6,4 C 5,6 C 3,9 C 82 % 0 lf 1023,2 hPa 0,0 l/m 0 min 0 min 0 W/m 16,7 km/h (3 Bft) 82,61 %
26.03.2017 04:00 6,4 C 5,6 C 3,9 C 82 % 0 lf 1023,3 hPa 0,0 l/m 0 min 0 min 0 W/m 12,6 km/h (3 Bft) 74,47 %
26.03.2017 04:02 6,4 C 5,6 C 3,9 C 82 % 0 lf 1023,2 hPa 0,0 l/m 0 min 0 min 0 W/m 10,5 km/h (2 Bft) 66,67 %
26.03.2017 04:04 6,4 C 5,6 C 3,9 C 82 % 0 lf 1023,3 hPa 0,0 l/m 0 min 0 min 0 W/m 10,5 km/h (2 Bft) 63,83 %
26.03.2017 04:06 6,4 C 5,6 C 3,9 C 83 % 0 lf 1023,2 hPa 0,0 l/m 0 min 0 min 1 W/m 12,6 km/h (3 Bft) 59,57 %
26.03.2017 04:08 6,4 C 5,6 C 3,9 C 83 % 0 lf 1023,2 hPa 0,0 l/m 0 min 0 min 5 W/m 14,6 km/h (3 Bft) 61,70 %
26.03.2017 04:10 6,3 C 5,6 C 3,9 C 83 % 0 lf 1023,2 hPa 0,0 l/m 0 min 0 min 5 W/m 14,6 km/h (3 Bft) 60,87 %
26.03.2017 04:12 6,3 C 5,6 C 3,9 C 83 % 0 lf 1023,2 hPa 0,0 l/m 0 min 0 min 5 W/m 18,8 km/h (3 Bft) 70,21 %
26.03.2017 04:14 6,3 C 5,6 C 3,9 C 83 % 0 lf 1023,2 hPa 0,0 l/m 0 min 0 min 5 W/m 16,7 km/h (3 Bft) 76,60 %
26.03.2017 04:16 6,3 C 5,6 C 3,9 C 83 % 0 lf 1023,2 hPa 0,0 l/m 0 min 0 min 5 W/m 16,7 km/h (3 Bft) 59,57 %
26.03.2017 04:18 6,2 C 5,6 C 3,9 C 83 % 0 lf 1023,2 hPa 0,0 l/m 0 min 0 min 5 W/m 18,8 km/h (3 Bft) 65,96 %
26.03.2017 04:20 6,2 C 5,6 C 3,9 C 84 % 0 lf 1023,2 hPa 0,0 l/m 0 min 0 min 1 W/m 14,6 km/h (3 Bft) 61,70 %
26.03.2017 04:22 6,2 C 5,6 C 3,9 C 84 % 0 lf 1023,2 hPa 0,0 l/m 0 min 0 min 0 W/m 14,6 km/h (3 Bft) 78,26 %
26.03.2017 04:24 6,2 C 5,6 C 3,9 C 84 % 0 lf 1023,2 hPa 0,0 l/m 0 min 0 min 0 W/m 12,6 km/h (3 Bft) 63,83 %
26.03.2017 04:26 6,2 C 5,6 C 3,9 C 84 % 0 lf 1023,2 hPa 0,0 l/m 0 min 0 min 0 W/m 10,5 km/h (2 Bft) 70,21 %
26.03.2017 04:28 6,2 C 5,6 C 3,9 C 84 % 0 lf 1023,2 hPa 0,0 l/m 0 min 0 min 0 W/m 16,7 km/h (3 Bft) 63,83 %
26.03.2017 04:30 6,2 C 5,6 C 4,4 C 84 % 0 lf 1023,2 hPa 0,0 l/m 0 min 0 min 0 W/m 12,6 km/h (3 Bft) 57,45 %
26.03.2017 04:32 6,2 C 5,6 C 3,9 C 85 % 0 lf 1023,1 hPa 0,0 l/m 0 min 0 min 0 W/m 12,6 km/h (3 Bft) 63,83 %
26.03.2017 04:34 6,2 C 5,6 C 3,9 C 85 % 0 lf 1023,1 hPa 0,0 l/m 0 min 0 min 0 W/m 12,6 km/h (3 Bft) 69,57 %
26.03.2017 04:36 6,2 C 5,6 C 3,9 C 85 % 0 lf 1023,1 hPa 0,0 l/m 0 min 0 min 0 W/m 14,6 km/h (3 Bft) 76,60 %
26.03.2017 04:38 6,2 C 5,6 C 3,9 C 85 % 0 lf 1023,0 hPa 0,0 l/m 0 min 0 min 0 W/m 14,6 km/h (3 Bft) 70,21 %
26.03.2017 04:40 6,1 C 5,6 C 3,9 C 85 % 0 lf 1023,0 hPa 0,0 l/m 0 min 0 min 0 W/m 16,7 km/h (3 Bft) 70,21 %
26.03.2017 04:42 6,1 C 5,6 C 3,9 C 85 % 0 lf 1023,1 hPa 0,0 l/m 0 min 0 min 0 W/m 12,6 km/h (3 Bft) 63,83 %
26.03.2017 04:44 6,1 C 5,6 C 3,9 C 85 % 0 lf 1023,0 hPa 0,0 l/m 0 min 0 min 0 W/m 10,5 km/h (2 Bft) 72,34 %
26.03.2017 04:46 6,1 C 5,6 C 3,9 C 85 % 0 lf 1023,1 hPa 0,0 l/m 0 min 0 min 0 W/m 10,5 km/h (2 Bft) 76,09 %
26.03.2017 04:48 6,1 C 5,6 C 3,3 C 85 % 0 lf 1023,1 hPa 0,0 l/m 0 min 0 min 0 W/m 10,5 km/h (2 Bft) 65,96 %
26.03.2017 04:50 6,1 C 5,6 C 3,3 C 86 % 0 lf 1023,1 hPa 0,0 l/m 0 min 0 min 0 W/m 14,6 km/h (3 Bft) 65,96 %
26.03.2017 04:52 6,1 C 5,6 C 3,9 C 86 % 0 lf 1023,3 hPa 0,0 l/m 0 min 0 min 0 W/m 18,8 km/h (3 Bft) 61,70 %
26.03.2017 04:54 6,0 C 5,6 C 3,9 C 86 % 0 lf 1023,3 hPa 0,0 l/m 0 min 0 min 0 W/m 16,7 km/h (3 Bft) 65,96 %
26.03.2017 04:56 6,0 C 5,6 C 3,9 C 86 % 0 lf 1023,3 hPa 0,0 l/m 0 min 0 min 0 W/m 18,8 km/h (3 Bft) 60,87 %
26.03.2017 04:58 6,0 C 5,6 C 3,9 C 86 % 0 lf 1023,3 hPa 0,0 l/m 0 min 0 min 0 W/m 20,9 km/h (4 Bft) 68,09 %
26.03.2017 05:00 6,0 C 5,6 C 3,9 C 86 % 0 lf 1023,2 hPa 0,0 l/m 0 min 0 min 0 W/m 18,8 km/h (3 Bft) 70,21 %
26.03.2017 05:02 6,0 C 5,6 C 3,9 C 86 % 0 lf 1023,1 hPa 0,0 l/m 0 min 0 min 0 W/m 23,0 km/h (4 Bft) 65,96 %
26.03.2017 05:04 6,0 C 5,6 C 3,9 C 86 % 0 lf 1023,1 hPa 0,0 l/m 0 min 0 min 0 W/m 18,8 km/h (3 Bft) 63,83 %
26.03.2017 05:06 6,0 C 5,6 C 3,9 C 87 % 0 lf 1023,1 hPa 0,0 l/m 0 min 0 min 0 W/m 18,8 km/h (3 Bft) 76,60 %
26.03.2017 05:08 6,0 C 5,6 C 3,9 C 87 % 0 lf 1023,0 hPa 0,0 l/m 0 min 0 min 0 W/m 16,7 km/h (3 Bft) 82,61 %
26.03.2017 05:10 5,9 C 5,6 C 3,9 C 87 % 0 lf 1023,1 hPa 0,0 l/m 0 min 0 min 0 W/m 12,6 km/h (3 Bft) 57,45 %
26.03.2017 05:12 5,9 C 5,6 C 3,9 C 87 % 0 lf 1023,2 hPa 0,0 l/m 0 min 0 min 0 W/m 14,6 km/h (3 Bft) 89,36 %
26.03.2017 05:14 5,9 C 5,6 C 3,9 C 87 % 0 lf 1023,2 hPa 0,0 l/m 0 min 0 min 0 W/m 16,7 km/h (3 Bft) 76,60 %
26.03.2017 05:16 5,9 C 5,6 C 3,9 C 87 % 0 lf 1023,1 hPa 0,0 l/m 0 min 0 min 0 W/m 12,6 km/h (3 Bft) 76,60 %
26.03.2017 05:18 5,9 C 5,6 C 3,9 C 87 % 0 lf 1023,0 hPa 0,0 l/m 0 min 0 min 0 W/m 10,5 km/h (2 Bft) 87,23 %
26.03.2017 05:20 5,9 C 5,6 C 3,9 C 87 % 0 lf 1023,0 hPa 0,0 l/m 0 min 0 min 0 W/m 10,5 km/h (2 Bft) 82,61 %
26.03.2017 05:22 5,9 C 5,6 C 3,9 C 87 % 0 lf 1023,0 hPa 0,0 l/m 0 min 0 min 0 W/m 10,5 km/h (2 Bft) 78,72 %
26.03.2017 05:24 5,9 C 5,6 C 3,3 C 87 % 0 lf 1023,0 hPa 0,0 l/m 0 min 0 min 0 W/m 12,6 km/h (3 Bft) 74,47 %
26.03.2017 05:26 5,9 C 5,6 C 3,3 C 87 % 0 lf 1022,9 hPa 0,0 l/m 0 min 0 min 0 W/m 14,6 km/h (3 Bft) 74,47 %
26.03.2017 05:28 5,9 C 5,0 C 3,3 C 87 % 0 lf 1023,0 hPa 0,0 l/m 0 min 0 min 0 W/m 10,5 km/h (2 Bft) 61,70 %
26.03.2017 05:30 5,8 C 5,0 C 3,3 C 87 % 0 lf 1023,1 hPa 0,0 l/m 0 min 0 min 0 W/m 14,6 km/h (3 Bft) 68,09 %
26.03.2017 05:32 5,8 C 5,0 C 3,3 C 87 % 0 lf 1023,1 hPa 0,0 l/m 0 min 0 min 0 W/m 10,5 km/h (2 Bft) 73,91 %
26.03.2017 05:34 5,8 C 5,0 C 3,3 C 87 % 0 lf 1023,2 hPa 0,0 l/m 0 min 0 min 0 W/m 16,7 km/h (3 Bft) 85,11 %
26.03.2017 05:36 5,8 C 5,0 C 3,3 C 87 % 0 lf 1023,2 hPa 0,0 l/m 0 min 0 min 0 W/m 12,6 km/h (3 Bft) 82,98 %
26.03.2017 05:38 5,7 C 5,0 C 3,3 C 87 % 0 lf 1023,2 hPa 0,0 l/m 0 min 0 min 0 W/m 16,7 km/h (3 Bft) 68,09 %
26.03.2017 05:40 5,7 C 5,0 C 3,3 C 87 % 0 lf 1023,2 hPa 0,0 l/m 0 min 0 min 0 W/m 12,6 km/h (3 Bft) 70,21 %
26.03.2017 05:42 5,7 C 5,0 C 3,3 C 87 % 0 lf 1023,2 hPa 0,0 l/m 0 min 0 min 0 W/m 10,5 km/h (2 Bft) 74,47 %
26.03.2017 05:44 5,7 C 5,0 C 2,8 C 87 % 0 lf 1023,1 hPa 0,0 l/m 0 min 0 min 0 W/m 14,6 km/h (3 Bft) 84,78 %
26.03.2017 05:46 5,7 C 5,0 C 2,8 C 87 % 0 lf 1023,2 hPa 0,0 l/m 0 min 0 min 0 W/m 8,4 km/h (2 Bft) 76,60 %
26.03.2017 05:48 5,6 C 5,0 C 2,8 C 88 % 0 lf 1023,1 hPa 0,0 l/m 0 min 0 min 0 W/m 10,5 km/h (2 Bft) 89,36 %
26.03.2017 05:50 5,6 C 5,0 C 2,8 C 88 % 0 lf 1023,3 hPa 0,0 l/m 0 min 0 min 0 W/m 6,3 km/h (2 Bft) 95,74 %
26.03.2017 05:52 5,6 C 5,0 C 2,8 C 88 % 0 lf 1023,2 hPa 0,0 l/m 0 min 0 min 0 W/m 8,4 km/h (2 Bft) 93,62 %
26.03.2017 05:54 5,6 C 5,0 C 2,8 C 88 % 0 lf 1023,3 hPa 0,0 l/m 0 min 0 min 0 W/m 6,3 km/h (2 Bft) 82,98 %
26.03.2017 05:56 5,5 C 4,4 C 2,8 C 88 % 1 lf 1023,3 hPa 0,0 l/m 0 min 0 min 0 W/m 4,2 km/h (1 Bft) 82,61 %
26.03.2017 05:58 5,5 C 4,4 C 2,2 C 88 % 1 lf 1023,4 hPa 0,0 l/m 0 min 0 min 0 W/m 6,3 km/h (2 Bft) 82,98 %
26.03.2017 06:00 5,5 C 4,4 C 2,2 C 88 % 1 lf 1023,4 hPa 0,0 l/m 0 min 0 min 0 W/m 6,3 km/h (2 Bft) 78,72 %
26.03.2017 06:02 5,4 C 4,4 C 2,2 C 88 % 1 lf 1023,4 hPa 0,0 l/m 0 min 0 min 0 W/m 8,4 km/h (2 Bft) 85,11 %
26.03.2017 06:04 5,4 C 4,4 C 2,2 C 88 % 1 lf 1023,4 hPa 0,0 l/m 0 min 0 min 0 W/m 8,4 km/h (2 Bft) 89,36 %
26.03.2017 06:06 5,4 C 4,4 C 2,2 C 88 % 1 lf 1023,4 hPa 0,0 l/m 0 min 0 min 0 W/m 10,5 km/h (2 Bft) 89,36 %
26.03.2017 06:08 5,4 C 4,4 C 2,2 C 88 % 1 lf 1023,4 hPa 0,0 l/m 0 min 0 min 0 W/m 12,6 km/h (3 Bft) 89,13 %
26.03.2017 06:10 5,3 C 4,4 C 2,2 C 88 % 1 lf 1023,5 hPa 0,0 l/m 0 min 0 min 0 W/m 8,4 km/h (2 Bft) 72,92 %
26.03.2017 06:12 5,3 C 4,4 C 2,2 C 88 % 1 lf 1023,5 hPa 0,0 l/m 0 min 0 min 0 W/m 14,6 km/h (3 Bft) 74,47 %
26.03.2017 06:14 5,3 C 4,4 C 2,2 C 88 % 1 lf 1023,5 hPa 0,0 l/m 0 min 0 min 0 W/m 10,5 km/h (2 Bft) 78,26 %
26.03.2017 06:16 5,2 C 4,4 C 2,2 C 88 % 1 lf 1023,4 hPa 0,0 l/m 0 min 0 min 0 W/m 8,4 km/h (2 Bft) 82,98 %
26.03.2017 06:18 5,2 C 4,4 C 2,2 C 88 % 1 lf 1023,3 hPa 0,0 l/m 0 min 0 min 0 W/m 4,2 km/h (1 Bft) 97,87 %
26.03.2017 06:20 5,2 C 4,4 C 2,2 C 88 % 1 lf 1023,3 hPa 0,0 l/m 0 min 0 min 0 W/m 4,2 km/h (1 Bft) 91,49 %
26.03.2017 06:22 5,2 C 4,4 C 2,2 C 88 % 1 lf 1023,3 hPa 0,0 l/m 0 min 0 min 0 W/m 4,2 km/h (1 Bft) 97,87 %
26.03.2017 06:24 5,2 C 4,4 C 2,2 C 88 % 1 lf 1023,3 hPa 0,0 l/m 0 min 0 min 2 W/m 2,1 km/h (1 Bft) 91,49 %
26.03.2017 06:26 5,1 C 4,4 C 1,7 C 88 % 1 lf 1023,3 hPa 0,0 l/m 0 min 0 min 5 W/m 2,1 km/h (1 Bft) 91,30 %
26.03.2017 06:28 5,1 C 4,4 C 1,7 C 88 % 1 lf 1023,2 hPa 0,0 l/m 0 min 0 min 5 W/m 4,2 km/h (1 Bft) 87,23 %
26.03.2017 06:30 5,1 C 3,9 C 1,7 C 88 % 1 lf 1023,2 hPa 0,0 l/m 0 min 0 min 0 W/m 2,1 km/h (1 Bft) 89,36 %
26.03.2017 06:32 5,1 C 3,9 C 1,7 C 88 % 1 lf 1023,2 hPa 0,0 l/m 0 min 0 min 0 W/m 4,2 km/h (1 Bft) 95,74 %
26.03.2017 06:34 5,1 C 3,9 C 1,7 C 88 % 1 lf 1023,3 hPa 0,0 l/m 0 min 0 min 0 W/m 4,2 km/h (1 Bft) 89,36 %
26.03.2017 06:36 5,0 C 3,9 C 1,7 C 88 % 1 lf 1023,2 hPa 0,0 l/m 0 min 0 min 0 W/m 2,1 km/h (1 Bft) 89,36 %
26.03.2017 06:38 5,0 C 3,9 C 1,7 C 88 % 1 lf 1023,3 hPa 0,0 l/m 0 min 0 min 5 W/m 6,3 km/h (2 Bft) 93,48 %
26.03.2017 06:40 4,9 C 3,9 C 2,2 C 88 % 1 lf 1023,3 hPa 0,0 l/m 0 min 0 min 0 W/m 8,4 km/h (2 Bft) 93,62 %
26.03.2017 06:42 4,9 C 3,9 C 2,2 C 88 % 1 lf 1023,2 hPa 0,0 l/m 0 min 0 min 0 W/m 6,3 km/h (2 Bft) 95,74 %
26.03.2017 06:44 4,9 C 3,9 C 2,2 C 88 % 1 lf 1023,3 hPa 0,0 l/m 0 min 0 min 0 W/m 6,3 km/h (2 Bft) 89,36 %
26.03.2017 06:46 4,9 C 3,9 C 2,2 C 88 % 1 lf 1023,3 hPa 0,0 l/m 0 min 0 min 0 W/m 6,3 km/h (2 Bft) 89,36 %
26.03.2017 06:48 4,9 C 3,9 C 2,2 C 89 % 1 lf 1023,3 hPa 0,0 l/m 0 min 0 min 0 W/m 6,3 km/h (2 Bft) 91,49 %
26.03.2017 06:50 4,8 C 3,9 C 2,2 C 89 % 1 lf 1023,3 hPa 0,0 l/m 0 min 0 min 0 W/m 4,2 km/h (1 Bft) 91,30 %
26.03.2017 06:52 4,8 C 3,9 C 2,2 C 89 % 1 lf 1023,2 hPa 0,0 l/m 0 min 0 min 0 W/m 4,2 km/h (1 Bft) 93,62 %
26.03.2017 06:54 4,8 C 3,9 C 1,7 C 89 % 1 lf 1023,2 hPa 0,0 l/m 0 min 0 min 0 W/m 4,2 km/h (1 Bft) 87,23 %
26.03.2017 06:56 4,8 C 3,3 C 1,7 C 89 % 1 lf 1023,2 hPa 0,0 l/m 0 min 0 min 0 W/m 2,1 km/h (1 Bft) 91,49 %
26.03.2017 06:58 4,8 C 3,3 C 1,7 C 89 % 1 lf 1023,2 hPa 0,0 l/m 0 min 0 min 0 W/m 4,2 km/h (1 Bft) 93,62 %
26.03.2017 07:00 4,7 C 3,3 C 1,7 C 89 % 1 lf 1023,3 hPa 0,0 l/m 0 min 0 min 0 W/m 4,2 km/h (1 Bft) 93,62 %
26.03.2017 07:02 4,7 C 3,3 C 1,7 C 89 % 1 lf 1023,3 hPa 0,0 l/m 0 min 0 min 2 W/m 6,3 km/h (2 Bft) 91,30 %
26.03.2017 07:04 4,7 C 3,3 C 1,7 C 89 % 1 lf 1023,3 hPa 0,0 l/m 0 min 0 min 4 W/m 6,3 km/h (2 Bft) 85,11 %
26.03.2017 07:06 4,7 C 3,9 C 1,7 C 89 % 1 lf 1023,3 hPa 0,0 l/m 0 min 0 min 5 W/m 8,4 km/h (2 Bft) 91,49 %
26.03.2017 07:08 4,6 C 3,9 C 2,2 C 89 % 1 lf 1023,3 hPa 0,0 l/m 0 min 0 min 5 W/m 12,6 km/h (3 Bft) 91,49 %
26.03.2017 07:10 4,6 C 3,9 C 2,2 C 89 % 1 lf 1023,3 hPa 0,0 l/m 0 min 0 min 5 W/m 10,5 km/h (2 Bft) 87,23 %
26.03.2017 07:12 4,6 C 3,9 C 2,2 C 89 % 1 lf 1023,4 hPa 0,0 l/m 0 min 0 min 5 W/m 10,5 km/h (2 Bft) 93,48 %
26.03.2017 07:14 4,6 C 3,9 C 2,2 C 89 % 1 lf 1023,4 hPa 0,0 l/m 0 min 0 min 5 W/m 8,4 km/h (2 Bft) 95,74 %
26.03.2017 07:16 4,6 C 3,9 C 2,2 C 90 % 1 lf 1023,4 hPa 0,0 l/m 0 min 0 min 5 W/m 8,4 km/h (2 Bft) 93,62 %
26.03.2017 07:18 4,6 C 3,9 C 2,2 C 90 % 1 lf 1023,4 hPa 0,0 l/m 0 min 0 min 5 W/m 8,4 km/h (2 Bft) 91,49 %
26.03.2017 07:20 4,5 C 3,9 C 2,2 C 90 % 1 lf 1023,4 hPa 0,0 l/m 0 min 0 min 5 W/m 6,3 km/h (2 Bft) 93,62 %
26.03.2017 07:22 4,5 C 3,9 C 2,2 C 90 % 1 lf 1023,4 hPa 0,0 l/m 0 min 0 min 7 W/m 6,3 km/h (2 Bft) 95,74 %
26.03.2017 07:24 4,5 C 3,9 C 2,2 C 90 % 1 lf 1023,4 hPa 0,0 l/m 0 min 0 min 7 W/m 8,4 km/h (2 Bft) 91,30 %
26.03.2017 07:26 4,4 C 3,9 C 2,2 C 90 % 1 lf 1023,3 hPa 0,0 l/m 0 min 0 min 8 W/m 8,4 km/h (2 Bft) 91,49 %
26.03.2017 07:28 4,4 C 3,9 C 2,2 C 90 % 1 lf 1023,4 hPa 0,0 l/m 0 min 0 min 9 W/m 10,5 km/h (2 Bft) 89,36 %
26.03.2017 07:30 4,4 C 3,3 C 2,2 C 90 % 1 lf 1023,4 hPa 0,0 l/m 0 min 0 min 11 W/m 6,3 km/h (2 Bft) 91,49 %
26.03.2017 07:32 4,4 C 3,3 C 2,2 C 90 % 1 lf 1023,4 hPa 0,0 l/m 0 min 0 min 12 W/m 8,4 km/h (2 Bft) 93,62 %
26.03.2017 07:34 4,3 C 3,9 C 2,2 C 91 % 1 lf 1023,5 hPa 0,0 l/m 0 min 0 min 15 W/m 8,4 km/h (2 Bft) 87,23 %
26.03.2017 07:36 4,3 C 3,9 C 2,2 C 91 % 1 lf 1023,5 hPa 0,0 l/m 0 min 0 min 17 W/m 6,3 km/h (2 Bft) 89,13 %
26.03.2017 07:38 4,3 C 3,9 C 2,2 C 91 % 1 lf 1023,5 hPa 0,0 l/m 0 min 0 min 19 W/m 6,3 km/h (2 Bft) 91,49 %
26.03.2017 07:40 4,3 C 3,9 C 2,2 C 91 % 1 lf 1023,5 hPa 0,0 l/m 2 min 0 min 22 W/m 6,3 km/h (2 Bft) 95,74 %
26.03.2017 07:42 4,3 C 3,9 C 2,2 C 91 % 1 lf 1023,5 hPa 0,0 l/m 2 min 0 min 24 W/m 6,3 km/h (2 Bft) 97,87 %
26.03.2017 07:44 4,3 C 3,9 C 2,2 C 91 % 1 lf 1023,4 hPa 0,0 l/m 2 min 0 min 26 W/m 6,3 km/h (2 Bft) 95,74 %
26.03.2017 07:46 4,3 C 3,9 C 2,8 C 91 % 1 lf 1023,4 hPa 0,0 l/m 2 min 0 min 29 W/m 8,4 km/h (2 Bft) 89,36 %
26.03.2017 07:48 4,3 C 3,9 C 2,8 C 91 % 1 lf 1023,5 hPa 0,0 l/m 2 min 0 min 32 W/m 10,5 km/h (2 Bft) 93,48 %
26.03.2017 07:50 4,3 C 3,9 C 2,8 C 91 % 1 lf 1023,5 hPa 0,0 l/m 2 min 0 min 34 W/m 8,4 km/h (2 Bft) 95,74 %
26.03.2017 07:52 4,3 C 3,9 C 2,8 C 91 % 1 lf 1023,5 hPa 0,0 l/m 2 min 0 min 36 W/m 8,4 km/h (2 Bft) 89,36 %
26.03.2017 07:54 4,2 C 3,9 C 2,8 C 91 % 1 lf 1023,5 hPa 0,0 l/m 2 min 0 min 38 W/m 8,4 km/h (2 Bft) 78,72 %
26.03.2017 07:56 4,2 C 3,9 C 2,8 C 92 % 1 lf 1023,5 hPa 0,0 l/m 2 min 0 min 40 W/m 8,4 km/h (2 Bft) 91,49 %
26.03.2017 07:58 4,2 C 3,9 C 2,8 C 92 % 1 lf 1023,5 hPa 0,0 l/m 2 min 0 min 42 W/m 6,3 km/h (2 Bft) 93,62 %
26.03.2017 08:00 4,2 C 3,9 C 2,8 C 92 % 1 lf 1023,5 hPa 0,0 l/m 2 min 0 min 44 W/m 6,3 km/h (2 Bft) 93,48 %
26.03.2017 08:02 4,2 C 4,4 C 2,8 C 92 % 1 lf 1023,5 hPa 0,0 l/m 2 min 0 min 47 W/m 6,3 km/h (2 Bft) 91,49 %
26.03.2017 08:04 4,2 C 4,4 C 2,8 C 92 % 1 lf 1023,6 hPa 0,0 l/m 2 min 0 min 49 W/m 8,4 km/h (2 Bft) 89,36 %
26.03.2017 08:06 4,2 C 4,4 C 2,8 C 92 % 1 lf 1023,6 hPa 0,0 l/m 2 min 0 min 57 W/m 6,3 km/h (2 Bft) 91,49 %
26.03.2017 08:08 4,2 C 4,4 C 2,8 C 92 % 1 lf 1023,6 hPa 0,0 l/m 2 min 0 min 58 W/m 6,3 km/h (2 Bft) 97,87 %
26.03.2017 08:10 4,2 C 4,4 C 2,8 C 92 % 1 lf 1023,6 hPa 0,0 l/m 2 min 0 min 60 W/m 6,3 km/h (2 Bft) 91,30 %
26.03.2017 08:12 4,2 C 4,4 C 2,8 C 92 % 1 lf 1023,6 hPa 0,0 l/m 2 min 0 min 63 W/m 4,2 km/h (1 Bft) 82,98 %
26.03.2017 08:14 4,2 C 4,4 C 2,8 C 92 % 1 lf 1023,6 hPa 0,0 l/m 2 min 0 min 65 W/m 4,2 km/h (1 Bft) 93,62 %
26.03.2017 08:16 4,2 C 4,4 C 2,8 C 92 % 1 lf 1023,6 hPa 0,0 l/m 2 min 0 min 68 W/m 4,2 km/h (1 Bft) 91,49 %
26.03.2017 08:18 4,2 C 4,4 C 2,8 C 92 % 1 lf 1023,6 hPa 0,0 l/m 2 min 0 min 70 W/m 6,3 km/h (2 Bft) 91,49 %
26.03.2017 08:20 4,2 C 4,4 C 2,8 C 92 % 1 lf 1023,6 hPa 0,0 l/m 2 min 0 min 74 W/m 6,3 km/h (2 Bft) 97,87 %
26.03.2017 08:22 4,2 C 4,4 C 2,8 C 92 % 1 lf 1023,6 hPa 0,0 l/m 2 min 0 min 72 W/m 8,4 km/h (2 Bft) 97,83 %
26.03.2017 08:24 4,2 C 5,0 C 2,8 C 92 % 1 lf 1023,6 hPa 0,0 l/m 2 min 0 min 77 W/m 8,4 km/h (2 Bft) 97,87 %
26.03.2017 08:26 4,2 C 5,0 C 2,8 C 92 % 1 lf 1023,6 hPa 0,0 l/m 2 min 0 min 83 W/m 14,6 km/h (3 Bft) 97,87 %
26.03.2017 08:28 4,3 C 5,0 C 3,3 C 92 % 1 lf 1023,6 hPa 0,0 l/m 2 min 0 min 89 W/m 8,4 km/h (2 Bft) 89,36 %
26.03.2017 08:30 4,3 C 5,0 C 3,3 C 92 % 1 lf 1023,7 hPa 0,0 l/m 2 min 0 min 91 W/m 6,3 km/h (2 Bft) 78,72 %
26.03.2017 08:32 4,3 C 5,0 C 3,3 C 93 % 1 lf 1023,7 hPa 0,0 l/m 2 min 0 min 93 W/m 8,4 km/h (2 Bft) 89,36 %
26.03.2017 08:34 4,3 C 5,6 C 3,3 C 93 % 1 lf 1023,8 hPa 0,0 l/m 2 min 0 min 98 W/m 8,4 km/h (2 Bft) 95,74 %
26.03.2017 08:36 4,3 C 5,6 C 3,3 C 93 % 1 lf 1023,8 hPa 0,0 l/m 2 min 0 min 106 W/m 8,4 km/h (2 Bft) 97,83 %
26.03.2017 08:38 4,4 C 6,1 C 3,3 C 93 % 1 lf 1023,8 hPa 0,0 l/m 2 min 0 min 110 W/m 8,4 km/h (2 Bft) 100,00 %
26.03.2017 08:40 4,4 C 6,7 C 3,9 C 93 % 0 lf 1023,8 hPa 0,0 l/m 2 min 0 min 115 W/m 12,6 km/h (3 Bft) 100,00 %
26.03.2017 08:42 4,4 C 6,7 C 3,9 C 93 % 0 lf 1023,9 hPa 0,0 l/m 2 min 0 min 119 W/m 12,6 km/h (3 Bft) 95,74 %
26.03.2017 08:44 4,5 C 7,2 C 3,9 C 93 % 0 lf 1023,8 hPa 0,0 l/m 2 min 0 min 127 W/m 8,4 km/h (2 Bft) 100,00 %
26.03.2017 08:46 4,5 C 7,8 C 3,9 C 93 % 0 lf 1023,9 hPa 0,0 l/m 2 min 0 min 139 W/m 12,6 km/h (3 Bft) 95,65 %
26.03.2017 08:48 4,6 C 8,3 C 3,9 C 93 % 0 lf 1023,9 hPa 0,0 l/m 2 min 0 min 136 W/m 12,6 km/h (3 Bft) 100,00 %
26.03.2017 08:50 4,6 C 8,3 C 4,4 C 93 % 0 lf 1024,0 hPa 0,0 l/m 2 min 0 min 125 W/m 14,6 km/h (3 Bft) 97,87 %
26.03.2017 08:52 4,7 C 8,3 C 4,4 C 94 % 0 lf 1024,0 hPa 0,0 l/m 2 min 0 min 126 W/m 18,8 km/h (3 Bft) 97,87 %
26.03.2017 08:54 4,8 C 8,3 C 4,4 C 94 % 0 lf 1023,9 hPa 0,0 l/m 2 min 0 min 136 W/m 14,6 km/h (3 Bft) 95,74 %
26.03.2017 08:56 4,8 C 8,3 C 4,4 C 94 % 0 lf 1024,0 hPa 0,0 l/m 2 min 0 min 140 W/m 12,6 km/h (3 Bft) 100,00 %
26.03.2017 08:58 4,9 C 8,3 C 5,0 C 94 % 0 lf 1023,9 hPa 0,0 l/m 2 min 0 min 145 W/m 12,6 km/h (3 Bft) 100,00 %
26.03.2017 09:00 5,0 C 8,9 C 5,0 C 94 % 0 lf 1024,0 hPa 0,0 l/m 2 min 0 min 143 W/m 16,7 km/h (3 Bft) 93,62 %
26.03.2017 09:02 5,1 C 8,3 C 5,0 C 94 % 0 lf 1024,1 hPa 0,0 l/m 2 min 0 min 154 W/m 20,9 km/h (4 Bft) 91,49 %
26.03.2017 09:04 5,1 C 8,9 C 5,0 C 94 % 0 lf 1024,1 hPa 0,0 l/m 2 min 0 min 153 W/m 14,6 km/h (3 Bft) 93,62 %
26.03.2017 09:06 5,2 C 8,9 C 5,6 C 94 % 0 lf 1024,1 hPa 0,0 l/m 2 min 0 min 144 W/m 10,5 km/h (2 Bft) 95,74 %
26.03.2017 09:08 5,3 C 8,9 C 5,6 C 94 % 0 lf 1024,0 hPa 0,0 l/m 2 min 0 min 163 W/m 16,7 km/h (3 Bft) 95,74 %
26.03.2017 09:10 5,3 C 9,4 C 5,6 C 94 % 0 lf 1024,1 hPa 0,0 l/m 2 min 0 min 180 W/m 16,7 km/h (3 Bft) 93,48 %
26.03.2017 09:12 5,4 C 9,4 C 5,6 C 94 % 0 lf 1024,1 hPa 0,0 l/m 2 min 0 min 181 W/m 16,7 km/h (3 Bft) 95,74 %
26.03.2017 09:14 5,5 C 9,4 C 6,1 C 94 % 0 lf 1024,2 hPa 0,0 l/m 2 min 0 min 204 W/m 18,8 km/h (3 Bft) 95,74 %
26.03.2017 09:16 5,6 C 10,0 C 6,1 C 94 % 0 lf 1024,2 hPa 0,0 l/m 2 min 0 min 219 W/m 20,9 km/h (4 Bft) 91,49 %
26.03.2017 09:18 5,6 C 10,0 C 6,1 C 94 % 0 lf 1024,3 hPa 0,0 l/m 2 min 0 min 212 W/m 23,0 km/h (4 Bft) 95,74 %
26.03.2017 09:20 5,7 C 10,0 C 6,1 C 94 % 0 lf 1024,3 hPa 0,0 l/m 2 min 0 min 200 W/m 29,3 km/h (5 Bft) 93,62 %
26.03.2017 09:22 5,8 C 9,4 C 6,1 C 94 % 0 lf 1024,4 hPa 0,0 l/m 2 min 0 min 194 W/m 27,2 km/h (4 Bft) 95,65 %
26.03.2017 09:24 5,8 C 10,0 C 6,1 C 94 % 0 lf 1024,3 hPa 0,0 l/m 2 min 0 min 203 W/m 20,9 km/h (4 Bft) 93,62 %
26.03.2017 09:26 5,9 C 10,0 C 6,1 C 94 % 0 lf 1024,4 hPa 0,0 l/m 2 min 0 min 208 W/m 23,0 km/h (4 Bft) 95,74 %
26.03.2017 09:28 6,0 C 10,0 C 6,1 C 94 % 0 lf 1024,4 hPa 0,0 l/m 2 min 0 min 204 W/m 23,0 km/h (4 Bft) 93,62 %
26.03.2017 09:30 6,1 C 10,0 C 6,1 C 94 % 0 lf 1024,5 hPa 0,0 l/m 2 min 0 min 208 W/m 29,3 km/h (5 Bft) 95,74 %
26.03.2017 09:32 6,1 C 10,6 C 6,7 C 94 % 0 lf 1024,5 hPa 0,0 l/m 2 min 0 min 236 W/m 18,8 km/h (3 Bft) 93,48 %
26.03.2017 09:34 6,2 C 10,6 C 6,7 C 94 % 0 lf 1024,6 hPa 0,0 l/m 2 min 0 min 234 W/m 18,8 km/h (3 Bft) 91,49 %
26.03.2017 09:36 6,2 C 11,1 C 6,7 C 94 % 0 lf 1024,4 hPa 0,0 l/m 2 min 0 min 244 W/m 23,0 km/h (4 Bft) 93,62 %
26.03.2017 09:38 6,3 C 11,1 C 7,2 C 94 % 0 lf 1024,3 hPa 0,0 l/m 2 min 0 min 255 W/m 18,8 km/h (3 Bft) 95,74 %
26.03.2017 09:40 6,4 C 11,1 C 7,2 C 94 % 0 lf 1024,4 hPa 0,0 l/m 2 min 0 min 256 W/m 20,9 km/h (4 Bft) 93,62 %
26.03.2017 09:42 6,4 C 11,7 C 7,2 C 94 % 0 lf 1024,4 hPa 0,0 l/m 2 min 0 min 254 W/m 25,1 km/h (4 Bft) 97,87 %
26.03.2017 09:44 6,5 C 11,7 C 7,2 C 94 % 0 lf 1024,4 hPa 0,0 l/m 2 min 0 min 273 W/m 25,1 km/h (4 Bft) 93,48 %
26.03.2017 09:46 6,6 C 11,7 C 7,2 C 94 % 0 lf 1024,4 hPa 0,0 l/m 2 min 0 min 258 W/m 18,8 km/h (3 Bft) 93,62 %
26.03.2017 09:48 6,6 C 12,2 C 7,2 C 93 % 0 lf 1024,4 hPa 0,0 l/m 2 min 0 min 277 W/m 16,7 km/h (3 Bft) 97,87 %
26.03.2017 09:50 6,7 C 12,8 C 7,8 C 93 % 0 lf 1024,4 hPa 0,0 l/m 2 min 0 min 287 W/m 16,7 km/h (3 Bft) 97,87 %
26.03.2017 09:52 6,7 C 13,3 C 8,3 C 93 % 0 lf 1024,3 hPa 0,0 l/m 2 min 0 min 303 W/m 14,6 km/h (3 Bft) 91,49 %
26.03.2017 09:54 6,8 C 13,3 C 8,3 C 93 % 0 lf 1024,4 hPa 0,0 l/m 2 min 0 min 297 W/m 14,6 km/h (3 Bft) 97,87 %
26.03.2017 09:56 6,9 C 13,9 C 8,3 C 93 % 0 lf 1024,3 hPa 0,0 l/m 2 min 0 min 296 W/m 16,7 km/h (3 Bft) 95,65 %
26.03.2017 09:58 7,0 C 13,9 C 8,9 C 93 % 0 lf 1024,4 hPa 0,0 l/m 2 min 0 min 335 W/m 18,8 km/h (3 Bft) 95,74 %
26.03.2017 10:00 7,1 C 15,0 C 9,4 C 93 % 0 lf 1024,3 hPa 0,0 l/m 2 min 0 min 345 W/m 14,6 km/h (3 Bft) 97,87 %
26.03.2017 10:02 7,3 C 14,4 C 10,0 C 93 % 0 lf 1024,2 hPa 0,0 l/m 2 min 0 min 339 W/m 16,7 km/h (3 Bft) 97,87 %
26.03.2017 10:04 7,3 C 14,4 C 10,0 C 93 % 0 lf 1024,2 hPa 0,0 l/m 2 min 0 min 329 W/m 16,7 km/h (3 Bft) 95,74 %
26.03.2017 10:06 7,5 C 15,6 C 10,6 C 92 % 0 lf 1024,2 hPa 0,0 l/m 2 min 0 min 357 W/m 16,7 km/h (3 Bft) 97,87 %
26.03.2017 10:08 7,6 C 15,0 C 10,6 C 92 % 0 lf 1024,2 hPa 0,0 l/m 2 min 0 min 352 W/m 18,8 km/h (3 Bft) 97,83 %
26.03.2017 10:10 7,7 C 15,0 C 10,6 C 92 % 0 lf 1024,2 hPa 0,0 l/m 2 min 0 min 330 W/m 20,9 km/h (4 Bft) 93,62 %
26.03.2017 10:12 7,8 C 15,0 C 11,1 C 91 % 0 lf 1024,2 hPa 0,0 l/m 2 min 0 min 331 W/m 18,8 km/h (3 Bft) 97,87 %
26.03.2017 10:14 7,9 C 15,6 C 11,1 C 91 % 0 lf 1024,2 hPa 0,0 l/m 2 min 0 min 383 W/m 16,7 km/h (3 Bft) 95,74 %
26.03.2017 10:16 7,9 C 16,1 C 11,7 C 90 % 0 lf 1024,3 hPa 0,0 l/m 2 min 0 min 381 W/m 16,7 km/h (3 Bft) 95,74 %
26.03.2017 10:18 8,0 C 15,6 C 12,2 C 90 % 0 lf 1024,2 hPa 0,0 l/m 2 min 0 min 372 W/m 20,9 km/h (4 Bft) 95,74 %
26.03.2017 10:20 8,1 C 14,4 C 11,7 C 89 % 0 lf 1024,2 hPa 0,0 l/m 2 min 0 min 385 W/m 23,0 km/h (4 Bft) 97,83 %
26.03.2017 10:22 8,2 C 15,6 C 11,7 C 89 % 0 lf 1024,2 hPa 0,0 l/m 2 min 0 min 396 W/m 16,7 km/h (3 Bft) 97,87 %
26.03.2017 10:24 8,3 C 16,1 C 11,7 C 88 % 0 lf 1024,3 hPa 0,0 l/m 2 min 0 min 411 W/m 20,9 km/h (4 Bft) 95,74 %
26.03.2017 10:26 8,4 C 16,1 C 11,7 C 88 % 0 lf 1024,3 hPa 0,0 l/m 2 min 0 min 405 W/m 18,8 km/h (3 Bft) 97,87 %
26.03.2017 10:28 8,5 C 16,7 C 11,1 C 87 % 0 lf 1024,3 hPa 0,0 l/m 2 min 0 min 410 W/m 18,8 km/h (3 Bft) 95,74 %
26.03.2017 10:30 8,6 C 16,7 C 11,7 C 86 % 0 lf 1024,3 hPa 0,0 l/m 2 min 0 min 406 W/m 16,7 km/h (3 Bft) 97,87 %
26.03.2017 10:32 8,7 C 16,1 C 11,1 C 86 % 0 lf 1024,3 hPa 0,0 l/m 2 min 0 min 394 W/m 14,6 km/h (3 Bft) 95,65 %
26.03.2017 10:34 8,7 C 16,7 C 11,7 C 86 % 0 lf 1024,3 hPa 0,0 l/m 2 min 0 min 399 W/m 16,7 km/h (3 Bft) 95,74 %
26.03.2017 10:36 8,8 C 16,1 C 12,2 C 85 % 0 lf 1024,3 hPa 0,0 l/m 2 min 0 min 444 W/m 12,6 km/h (3 Bft) 97,87 %
26.03.2017 10:38 8,9 C 16,7 C 12,2 C 85 % 0 lf 1024,4 hPa 0,0 l/m 2 min 0 min 423 W/m 12,6 km/h (3 Bft) 97,87 %
26.03.2017 10:40 9,0 C 15,0 C 12,2 C 85 % 0 lf 1024,3 hPa 0,0 l/m 2 min 0 min 439 W/m 12,6 km/h (3 Bft) 100,00 %
26.03.2017 10:42 9,1 C 15,0 C 11,7 C 84 % 0 lf 1024,4 hPa 0,0 l/m 2 min 0 min 447 W/m 14,6 km/h (3 Bft) 93,48 %
26.03.2017 10:44 9,2 C 16,1 C 11,1 C 83 % 0 lf 1024,4 hPa 0,0 l/m 2 min 0 min 455 W/m 14,6 km/h (3 Bft) 100,00 %
26.03.2017 10:46 9,3 C 16,7 C 11,1 C 83 % 0 lf 1024,3 hPa 0,0 l/m 2 min 0 min 403 W/m 18,8 km/h (3 Bft) 95,74 %
26.03.2017 10:48 9,4 C 16,7 C 11,7 C 83 % 0 lf 1024,3 hPa 0,0 l/m 2 min 0 min 462 W/m 20,9 km/h (4 Bft) 100,00 %
26.03.2017 10:50 9,5 C 15,0 C 11,7 C 82 % 0 lf 1024,3 hPa 0,0 l/m 2 min 0 min 471 W/m 16,7 km/h (3 Bft) 100,00 %
26.03.2017 10:52 9,6 C 15,6 C 11,7 C 81 % 0 lf 1024,3 hPa 0,0 l/m 2 min 0 min 482 W/m 16,7 km/h (3 Bft) 100,00 %
26.03.2017 10:54 9,7 C 15,0 C 12,8 C 81 % 0 lf 1024,3 hPa 0,0 l/m 2 min 0 min 499 W/m 14,6 km/h (3 Bft) 91,49 %
26.03.2017 10:56 9,8 C 16,7 C 13,3 C 80 % 0 lf 1024,4 hPa 0,0 l/m 2 min 0 min 494 W/m 16,7 km/h (3 Bft) 97,87 %
26.03.2017 10:58 9,8 C 17,2 C 12,8 C 80 % 0 lf 1024,3 hPa 0,0 l/m 2 min 0 min 486 W/m 16,7 km/h (3 Bft) 95,74 %
26.03.2017 11:00 9,9 C 17,2 C 12,8 C 80 % 0 lf 1024,3 hPa 0,0 l/m 2 min 0 min 461 W/m 16,7 km/h (3 Bft) 95,65 %
26.03.2017 11:02 9,9 C 18,3 C 13,3 C 80 % 0 lf 1024,3 hPa 0,0 l/m 2 min 0 min 461 W/m 14,6 km/h (3 Bft) 95,74 %
26.03.2017 11:04 9,9 C 17,2 C 12,8 C 80 % 0 lf 1024,3 hPa 0,0 l/m 2 min 0 min 378 W/m 14,6 km/h (3 Bft) 95,74 %
26.03.2017 11:06 10,0 C 17,2 C 13,9 C 79 % 0 lf 1024,3 hPa 0,0 l/m 2 min 0 min 409 W/m 12,6 km/h (3 Bft) 97,87 %
26.03.2017 11:08 10,1 C 16,7 C 13,9 C 79 % 0 lf 1024,3 hPa 0,0 l/m 2 min 0 min 487 W/m 14,6 km/h (3 Bft) 97,87 %
26.03.2017 11:10 10,1 C 16,7 C 14,4 C 79 % 0 lf 1024,2 hPa 0,0 l/m 2 min 0 min 539 W/m 16,7 km/h (3 Bft) 97,87 %
26.03.2017 11:12 10,2 C 18,3 C 15,0 C 79 % 0 lf 1024,3 hPa 0,0 l/m 2 min 0 min 542 W/m 14,6 km/h (3 Bft) 97,83 %
26.03.2017 11:14 10,3 C 18,9 C 15,0 C 79 % 0 lf 1024,3 hPa 0,0 l/m 2 min 0 min 453 W/m 8,4 km/h (2 Bft) 95,74 %
26.03.2017 11:16 10,4 C 18,9 C 15,0 C 78 % 0 lf 1024,3 hPa 0,0 l/m 2 min 0 min 487 W/m 12,6 km/h (3 Bft) 93,62 %
26.03.2017 11:18 10,5 C 18,3 C 15,0 C 78 % 0 lf 1024,2 hPa 0,0 l/m 2 min 0 min 484 W/m 16,7 km/h (3 Bft) 93,62 %
26.03.2017 11:20 10,6 C 19,4 C 14,4 C 77 % 0 lf 1024,2 hPa 0,0 l/m 2 min 0 min 419 W/m 10,5 km/h (2 Bft) 97,87 %
26.03.2017 11:22 10,7 C 18,3 C 15,0 C 77 % 0 lf 1024,2 hPa 0,0 l/m 2 min 0 min 459 W/m 16,7 km/h (3 Bft) 95,74 %
26.03.2017 11:24 10,7 C 18,3 C 15,0 C 76 % 0 lf 1024,3 hPa 0,0 l/m 2 min 0 min 547 W/m 14,6 km/h (3 Bft) 95,65 %
26.03.2017 11:26 10,8 C 19,4 C 15,0 C 76 % 0 lf 1024,1 hPa 0,0 l/m 2 min 0 min 565 W/m 14,6 km/h (3 Bft) 95,74 %
26.03.2017 11:28 10,9 C 18,3 C 16,1 C 75 % 0 lf 1024,2 hPa 0,0 l/m 2 min 0 min 575 W/m 16,7 km/h (3 Bft) 97,87 %
26.03.2017 11:30 10,9 C 20,0 C 15,6 C 75 % 0 lf 1024,2 hPa 0,0 l/m 2 min 0 min 584 W/m 14,6 km/h (3 Bft) 97,87 %
26.03.2017 11:32 11,0 C 20,6 C 15,0 C 74 % 0 lf 1024,2 hPa 0,0 l/m 2 min 0 min 563 W/m 16,7 km/h (3 Bft) 93,62 %
26.03.2017 11:34 11,1 C 20,6 C 15,6 C 75 % 0 lf 1024,2 hPa 0,0 l/m 2 min 0 min 561 W/m 18,8 km/h (3 Bft) 93,62 %
26.03.2017 11:36 11,2 C 21,1 C 15,0 C 75 % 0 lf 1024,2 hPa 0,0 l/m 2 min 0 min 566 W/m 12,6 km/h (3 Bft) 95,65 %
26.03.2017 11:38 11,3 C 18,9 C 15,0 C 74 % 0 lf 1024,1 hPa 0,0 l/m 2 min 0 min 568 W/m 16,7 km/h (3 Bft) 91,49 %
26.03.2017 11:40 11,3 C 18,9 C 16,1 C 72 % 0 lf 1024,1 hPa 0,0 l/m 2 min 0 min 510 W/m 8,4 km/h (2 Bft) 97,87 %
26.03.2017 11:42 11,4 C 19,4 C 15,6 C 72 % 0 lf 1024,1 hPa 0,0 l/m 2 min 0 min 522 W/m 16,7 km/h (3 Bft) 95,74 %
26.03.2017 11:44 11,5 C 21,1 C 16,1 C 72 % 0 lf 1024,1 hPa 0,0 l/m 2 min 0 min 587 W/m 10,5 km/h (2 Bft) 97,87 %
26.03.2017 11:46 11,6 C 21,1 C 15,6 C 72 % 0 lf 1024,1 hPa 0,0 l/m 2 min 0 min 576 W/m 14,6 km/h (3 Bft) 93,48 %
26.03.2017 11:48 11,6 C 20,0 C 15,6 C 71 % 0 lf 1024,1 hPa 0,0 l/m 2 min 0 min 515 W/m 16,7 km/h (3 Bft) 93,62 %
26.03.2017 11:50 11,7 C 20,6 C 16,1 C 70 % 0 lf 1024,1 hPa 0,0 l/m 2 min 0 min 551 W/m 8,4 km/h (2 Bft) 91,49 %
26.03.2017 11:52 11,7 C 20,0 C 16,7 C 70 % 0 lf 1024,2 hPa 0,0 l/m 2 min 0 min 579 W/m 18,8 km/h (3 Bft) 95,74 %
26.03.2017 11:54 11,8 C 19,4 C 16,7 C 70 % 0 lf 1024,1 hPa 0,0 l/m 2 min 0 min 573 W/m 14,6 km/h (3 Bft) 95,74 %
26.03.2017 11:56 11,8 C 21,1 C 16,7 C 69 % 0 lf 1024,1 hPa 0,0 l/m 2 min 0 min 585 W/m 10,5 km/h (2 Bft) 93,62 %
26.03.2017 11:58 11,9 C 21,7 C 16,1 C 69 % 0 lf 1024,0 hPa 0,0 l/m 2 min 0 min 573 W/m 8,4 km/h (2 Bft) 97,87 %
26.03.2017 12:00 11,9 C 21,7 C 16,1 C 69 % 0 lf 1024,0 hPa 0,0 l/m 2 min 0 min 540 W/m 6,3 km/h (2 Bft) 95,65 %
26.03.2017 12:02 11,9 C 19,4 C 16,1 C 69 % 0 lf 1024,0 hPa 0,0 l/m 2 min 0 min 433 W/m 10,5 km/h (2 Bft) 93,62 %
26.03.2017 12:04 11,9 C 16,7 C 15,0 C 68 % 0 lf 1024,0 hPa 0,0 l/m 2 min 0 min 302 W/m 14,6 km/h (3 Bft) 95,74 %
26.03.2017 12:06 12,0 C 16,7 C 15,6 C 67 % 0 lf 1024,0 hPa 0,0 l/m 2 min 0 min 456 W/m 8,4 km/h (2 Bft) 95,74 %
26.03.2017 12:08 12,0 C 17,8 C 16,1 C 68 % 0 lf 1024,1 hPa 0,0 l/m 2 min 0 min 624 W/m 12,6 km/h (3 Bft) 87,76 %
26.03.2017 12:10 12,1 C 17,8 C 15,6 C 67 % 0 lf 1024,1 hPa 0,0 l/m 2 min 0 min 571 W/m 6,3 km/h (2 Bft) 95,65 %
26.03.2017 12:12 12,1 C 19,4 C 15,6 C 67 % 0 lf 1024,1 hPa 0,0 l/m 2 min 0 min 488 W/m 12,6 km/h (3 Bft) 93,62 %
26.03.2017 12:14 12,1 C 20,0 C 15,0 C 67 % 0 lf 1024,0 hPa 0,0 l/m 2 min 0 min 611 W/m 10,5 km/h (2 Bft) 95,74 %
26.03.2017 12:16 12,1 C 18,9 C 15,0 C 67 % 0 lf 1024,1 hPa 0,0 l/m 2 min 0 min 631 W/m 16,7 km/h (3 Bft) 95,74 %
26.03.2017 12:18 12,1 C 18,9 C 15,0 C 67 % 0 lf 1024,0 hPa 0,0 l/m 2 min 0 min 628 W/m 14,6 km/h (3 Bft) 95,74 %
26.03.2017 12:20 12,2 C 20,6 C 15,0 C 67 % 0 lf 1024,1 hPa 0,0 l/m 2 min 0 min 611 W/m 12,6 km/h (3 Bft) 91,49 %
26.03.2017 12:22 12,2 C 18,3 C 14,4 C 66 % 0 lf 1024,1 hPa 0,0 l/m 2 min 0 min 601 W/m 18,8 km/h (3 Bft) 95,65 %
26.03.2017 12:24 12,2 C 17,8 C 13,9 C 66 % 0 lf 1024,1 hPa 0,0 l/m 2 min 0 min 556 W/m 12,6 km/h (3 Bft) 93,62 %
26.03.2017 12:26 12,3 C 18,3 C 13,9 C 67 % 0 lf 1024,1 hPa 0,0 l/m 2 min 0 min 586 W/m 12,6 km/h (3 Bft) 95,74 %
26.03.2017 12:28 12,3 C 17,8 C 13,9 C 66 % 0 lf 1024,1 hPa 0,0 l/m 2 min 0 min 603 W/m 10,5 km/h (2 Bft) 97,87 %
26.03.2017 12:30 12,4 C 19,4 C 13,9 C 66 % 0 lf 1024,0 hPa 0,0 l/m 2 min 0 min 638 W/m 4,2 km/h (1 Bft) 95,74 %
26.03.2017 12:32 12,5 C 20,6 C 13,9 C 67 % 0 lf 1024,0 hPa 0,0 l/m 2 min 0 min 718 W/m 14,6 km/h (3 Bft) 93,62 %
26.03.2017 12:34 12,6 C 20,6 C 13,9 C 67 % 0 lf 1024,0 hPa 0,0 l/m 2 min 0 min 674 W/m 18,8 km/h (3 Bft) 95,65 %
26.03.2017 12:36 12,7 C 21,7 C 13,9 C 66 % 0 lf 1023,9 hPa 0,0 l/m 2 min 0 min 678 W/m 12,6 km/h (3 Bft) 95,74 %
26.03.2017 12:38 12,8 C 22,8 C 14,4 C 66 % 0 lf 1024,0 hPa 0,0 l/m 2 min 0 min 688 W/m 12,6 km/h (3 Bft) 95,74 %
26.03.2017 12:40 12,9 C 20,6 C 14,4 C 66 % 0 lf 1023,9 hPa 0,0 l/m 2 min 0 min 690 W/m 10,5 km/h (2 Bft) 93,62 %
26.03.2017 12:42 13,0 C 18,9 C 14,4 C 64 % 0 lf 1023,9 hPa 0,0 l/m 2 min 0 min 617 W/m 12,6 km/h (3 Bft) 93,62 %
26.03.2017 12:44 13,1 C 20,0 C 13,9 C 64 % 0 lf 1023,9 hPa 0,0 l/m 2 min 0 min 588 W/m 12,6 km/h (3 Bft) 95,74 %
26.03.2017 12:46 13,1 C 21,1 C 12,8 C 63 % 0 lf 1023,7 hPa 0,0 l/m 2 min 0 min 565 W/m 8,4 km/h (2 Bft) 95,65 %
26.03.2017 12:48 13,1 C 21,7 C 13,3 C 64 % 0 lf 1023,8 hPa 0,0 l/m 2 min 0 min 573 W/m 12,6 km/h (3 Bft) 93,62 %
26.03.2017 12:50 13,0 C 22,2 C 13,3 C 64 % 0 lf 1023,8 hPa 0,0 l/m 2 min 0 min 723 W/m 12,6 km/h (3 Bft) 95,74 %
26.03.2017 12:52 13,0 C 21,7 C 13,3 C 64 % 0 lf 1023,7 hPa 0,0 l/m 2 min 0 min 673 W/m 12,6 km/h (3 Bft) 95,74 %
26.03.2017 12:54 13,0 C 23,3 C 13,3 C 65 % 0 lf 1023,7 hPa 0,0 l/m 2 min 0 min 689 W/m 8,4 km/h (2 Bft) 95,74 %
26.03.2017 12:56 13,1 C 24,4 C 13,9 C 66 % 0 lf 1023,7 hPa 0,0 l/m 2 min 0 min 756 W/m 10,5 km/h (2 Bft) 97,83 %
26.03.2017 12:58 13,1 C 23,3 C 13,9 C 65 % 0 lf 1023,7 hPa 0,0 l/m 2 min 0 min 751 W/m 8,4 km/h (2 Bft) 97,87 %
26.03.2017 13:00 13,2 C 24,4 C 13,3 C 64 % 0 lf 1023,7 hPa 0,0 l/m 2 min 0 min 778 W/m 10,5 km/h (2 Bft) 95,74 %
26.03.2017 13:02 13,2 C 25,0 C 12,8 C 64 % 0 lf 1023,7 hPa 0,0 l/m 2 min 0 min 882 W/m 12,6 km/h (3 Bft) 95,74 %
26.03.2017 13:04 13,3 C 25,0 C 13,3 C 64 % 0 lf 1023,7 hPa 0,0 l/m 2 min 0 min 847 W/m 14,6 km/h (3 Bft) 97,87 %
26.03.2017 13:06 13,3 C 23,3 C 13,3 C 65 % 0 lf 1023,7 hPa 0,0 l/m 2 min 0 min 732 W/m 12,6 km/h (3 Bft) 93,62 %
26.03.2017 13:08 13,4 C 23,3 C 13,3 C 64 % 0 lf 1023,7 hPa 0,0 l/m 2 min 0 min 610 W/m 12,6 km/h (3 Bft) 97,83 %
26.03.2017 13:10 13,5 C 21,7 C 13,3 C 63 % 0 lf 1023,7 hPa 0,0 l/m 2 min 0 min 518 W/m 14,6 km/h (3 Bft) 97,87 %
26.03.2017 13:12 13,6 C 20,0 C 12,8 C 62 % 0 lf 1023,7 hPa 0,0 l/m 2 min 0 min 508 W/m 16,7 km/h (3 Bft) 95,74 %
26.03.2017 13:14 13,6 C 19,4 C 12,8 C 62 % 0 lf 1023,7 hPa 0,0 l/m 2 min 0 min 538 W/m 8,4 km/h (2 Bft) 95,74 %
26.03.2017 13:16 13,7 C 21,1 C 13,3 C 63 % 0 lf 1023,7 hPa 0,0 l/m 2 min 0 min 632 W/m 14,6 km/h (3 Bft) 97,87 %
26.03.2017 13:18 13,7 C 22,8 C 12,8 C 62 % 0 lf 1023,6 hPa 0,0 l/m 2 min 0 min 679 W/m 16,7 km/h (3 Bft) 95,74 %
26.03.2017 13:20 13,8 C 24,4 C 12,8 C 63 % 0 lf 1023,7 hPa 0,0 l/m 2 min 0 min 676 W/m 12,6 km/h (3 Bft) 100,00 %
26.03.2017 13:22 13,8 C 25,0 C 12,8 C 63 % 0 lf 1023,7 hPa 0,0 l/m 2 min 0 min 635 W/m 10,5 km/h (2 Bft) 100,00 %
26.03.2017 13:24 13,9 C 25,6 C 12,8 C 62 % 0 lf 1023,7 hPa 0,0 l/m 2 min 0 min 624 W/m 14,6 km/h (3 Bft) 100,00 %
26.03.2017 13:26 13,9 C 25,6 C 12,8 C 62 % 0 lf 1023,7 hPa 0,0 l/m 2 min 0 min 635 W/m 12,6 km/h (3 Bft) 95,74 %
26.03.2017 13:28 13,9 C 23,9 C 12,2 C 62 % 0 lf 1023,6 hPa 0,0 l/m 2 min 0 min 684 W/m 16,7 km/h (3 Bft) 95,74 %
26.03.2017 13:30 13,8 C 24,4 C 12,2 C 62 % 0 lf 1023,5 hPa 0,0 l/m 2 min 0 min 657 W/m 12,6 km/h (3 Bft) 97,87 %
26.03.2017 13:32 13,9 C 25,6 C 12,8 C 62 % 0 lf 1023,5 hPa 0,0 l/m 2 min 0 min 667 W/m 12,6 km/h (3 Bft) 91,30 %
26.03.2017 13:34 13,9 C 25,6 C 12,8 C 63 % 0 lf 1023,4 hPa 0,0 l/m 2 min 0 min 686 W/m 14,6 km/h (3 Bft) 95,74 %
26.03.2017 13:36 13,9 C 25,0 C 12,8 C 62 % 0 lf 1023,5 hPa 0,0 l/m 2 min 0 min 682 W/m 14,6 km/h (3 Bft) 93,62 %
26.03.2017 13:38 13,9 C 23,9 C 12,8 C 62 % 0 lf 1023,4 hPa 0,0 l/m 2 min 0 min 768 W/m 16,7 km/h (3 Bft) 97,87 %
26.03.2017 13:40 13,8 C 23,9 C 12,2 C 63 % 0 lf 1023,4 hPa 0,0 l/m 2 min 0 min 816 W/m 12,6 km/h (3 Bft) 95,74 %
26.03.2017 13:42 13,8 C 23,3 C 12,2 C 63 % 0 lf 1023,4 hPa 0,0 l/m 2 min 0 min 764 W/m 12,6 km/h (3 Bft) 95,74 %
26.03.2017 13:44 13,8 C 22,2 C 12,2 C 64 % 0 lf 1023,4 hPa 0,0 l/m 2 min 0 min 671 W/m 16,7 km/h (3 Bft) 97,83 %
26.03.2017 13:46 13,8 C 22,2 C 12,2 C 64 % 0 lf 1023,4 hPa 0,0 l/m 2 min 0 min 807 W/m 16,7 km/h (3 Bft) 95,74 %
26.03.2017 13:48 13,8 C 22,2 C 12,2 C 64 % 0 lf 1023,4 hPa 0,0 l/m 2 min 0 min 840 W/m 14,6 km/h (3 Bft) 95,74 %
26.03.2017 13:50 13,7 C 22,2 C 12,2 C 64 % 0 lf 1023,4 hPa 0,0 l/m 2 min 0 min 851 W/m 16,7 km/h (3 Bft) 97,87 %
26.03.2017 13:52 13,7 C 23,9 C 12,8 C 64 % 0 lf 1023,4 hPa 0,0 l/m 2 min 0 min 863 W/m 10,5 km/h (2 Bft) 96,00 %
26.03.2017 13:54 13,7 C 24,4 C 12,8 C 65 % 0 lf 1023,4 hPa 0,0 l/m 2 min 0 min 878 W/m 8,4 km/h (2 Bft) 95,74 %
26.03.2017 13:56 13,8 C 25,6 C 12,8 C 65 % 0 lf 1023,3 hPa 0,0 l/m 2 min 0 min 770 W/m 8,4 km/h (2 Bft) 93,48 %
26.03.2017 13:58 13,8 C 23,9 C 12,8 C 66 % 0 lf 1023,3 hPa 0,0 l/m 2 min 0 min 655 W/m 18,8 km/h (3 Bft) 97,87 %
26.03.2017 14:00 13,9 C 23,9 C 12,8 C 65 % 0 lf 1023,3 hPa 0,0 l/m 2 min 0 min 653 W/m 16,7 km/h (3 Bft) 97,87 %
26.03.2017 14:02 13,9 C 23,3 C 12,8 C 65 % 0 lf 1023,3 hPa 0,0 l/m 2 min 0 min 637 W/m 25,1 km/h (4 Bft) 100,00 %
26.03.2017 14:04 13,9 C 21,1 C 12,8 C 63 % 0 lf 1023,2 hPa 0,0 l/m 2 min 0 min 620 W/m 20,9 km/h (4 Bft) 97,87 %
26.03.2017 14:06 13,9 C 21,7 C 12,2 C 63 % 0 lf 1023,2 hPa 0,0 l/m 2 min 0 min 637 W/m 12,6 km/h (3 Bft) 97,83 %
26.03.2017 14:08 13,8 C 22,8 C 12,2 C 63 % 0 lf 1023,1 hPa 0,0 l/m 2 min 0 min 622 W/m 14,6 km/h (3 Bft) 97,87 %
26.03.2017 14:10 13,8 C 21,7 C 12,2 C 63 % 0 lf 1023,2 hPa 0,0 l/m 2 min 0 min 628 W/m 18,8 km/h (3 Bft) 97,87 %
26.03.2017 14:12 13,8 C 22,2 C 12,2 C 63 % 0 lf 1023,1 hPa 0,0 l/m 2 min 0 min 628 W/m 10,5 km/h (2 Bft) 97,87 %
26.03.2017 14:14 13,8 C 23,3 C 12,8 C 64 % 0 lf 1023,1 hPa 0,0 l/m 2 min 0 min 665 W/m 10,5 km/h (2 Bft) 100,00 %
26.03.2017 14:16 13,8 C 23,3 C 12,8 C 64 % 0 lf 1023,1 hPa 0,0 l/m 2 min 0 min 654 W/m 14,6 km/h (3 Bft) 97,87 %
26.03.2017 14:18 13,8 C 23,3 C 12,8 C 64 % 0 lf 1023,0 hPa 0,0 l/m 2 min 0 min 649 W/m 18,8 km/h (3 Bft) 97,83 %
26.03.2017 14:20 13,8 C 23,3 C 12,8 C 63 % 0 lf 1023,0 hPa 0,0 l/m 2 min 0 min 664 W/m 20,9 km/h (4 Bft) 100,00 %
26.03.2017 14:22 13,8 C 22,2 C 12,8 C 62 % 0 lf 1023,0 hPa 0,0 l/m 2 min 0 min 671 W/m 14,6 km/h (3 Bft) 95,74 %
26.03.2017 14:24 13,8 C 23,3 C 12,8 C 63 % 0 lf 1023,0 hPa 0,0 l/m 2 min 0 min 653 W/m 14,6 km/h (3 Bft) 95,74 %
26.03.2017 14:26 13,9 C 22,2 C 12,8 C 62 % 0 lf 1023,0 hPa 0,0 l/m 2 min 0 min 644 W/m 18,8 km/h (3 Bft) 95,74 %
26.03.2017 14:28 13,9 C 22,2 C 12,8 C 62 % 0 lf 1023,0 hPa 0,0 l/m 2 min 0 min 634 W/m 18,8 km/h (3 Bft) 100,00 %
26.03.2017 14:30 13,9 C 22,8 C 12,8 C 62 % 0 lf 1023,0 hPa 0,0 l/m 2 min 0 min 636 W/m 16,7 km/h (3 Bft) 100,00 %
26.03.2017 14:32 13,9 C 22,2 C 12,8 C 61 % 0 lf 1022,9 hPa 0,0 l/m 2 min 0 min 636 W/m 12,6 km/h (3 Bft) 100,00 %
26.03.2017 14:34 13,9 C 22,8 C 12,8 C 61 % 0 lf 1022,9 hPa 0,0 l/m 2 min 0 min 673 W/m 14,6 km/h (3 Bft) 97,87 %
26.03.2017 14:36 13,9 C 22,8 C 12,8 C 61 % 0 lf 1022,9 hPa 0,0 l/m 2 min 0 min 661 W/m 12,6 km/h (3 Bft) 97,87 %
26.03.2017 14:38 14,0 C 23,3 C 12,8 C 61 % 0 lf 1022,9 hPa 0,0 l/m 2 min 0 min 647 W/m 14,6 km/h (3 Bft) 95,74 %
26.03.2017 14:40 14,1 C 22,8 C 12,8 C 62 % 0 lf 1022,9 hPa 0,0 l/m 2 min 0 min 637 W/m 16,7 km/h (3 Bft) 93,62 %
26.03.2017 14:42 14,1 C 22,2 C 12,8 C 62 % 0 lf 1022,9 hPa 0,0 l/m 2 min 0 min 629 W/m 25,1 km/h (4 Bft) 93,48 %
26.03.2017 14:44 14,2 C 22,8 C 13,3 C 63 % 0 lf 1022,9 hPa 0,0 l/m 2 min 0 min 611 W/m 18,8 km/h (3 Bft) 97,87 %
26.03.2017 14:46 14,2 C 22,2 C 12,8 C 62 % 0 lf 1022,9 hPa 0,0 l/m 2 min 0 min 626 W/m 14,6 km/h (3 Bft) 97,87 %
26.03.2017 14:48 14,2 C 21,7 C 13,3 C 61 % 0 lf 1022,9 hPa 0,0 l/m 2 min 0 min 625 W/m 8,4 km/h (2 Bft) 93,62 %
26.03.2017 14:50 14,2 C 22,8 C 13,3 C 62 % 0 lf 1022,9 hPa 0,0 l/m 2 min 0 min 635 W/m 18,8 km/h (3 Bft) 97,87 %
26.03.2017 14:52 14,2 C 22,8 C 13,3 C 61 % 0 lf 1022,9 hPa 0,0 l/m 2 min 0 min 628 W/m 14,6 km/h (3 Bft) 97,14 %
26.03.2017 14:54 14,2 C 22,8 C 13,3 C 61 % 0 lf 1022,8 hPa 0,0 l/m 2 min 0 min 618 W/m 18,8 km/h (3 Bft) 97,87 %
26.03.2017 14:56 14,2 C 22,8 C 13,3 C 60 % 0 lf 1022,8 hPa 0,0 l/m 2 min 0 min 623 W/m 20,9 km/h (4 Bft) 97,87 %
26.03.2017 14:58 14,3 C 24,4 C 13,9 C 61 % 0 lf 1022,9 hPa 0,0 l/m 2 min 0 min 641 W/m 18,8 km/h (3 Bft) 93,62 %
26.03.2017 15:00 14,4 C 23,9 C 13,3 C 60 % 0 lf 1022,8 hPa 0,0 l/m 2 min 0 min 635 W/m 16,7 km/h (3 Bft) 93,62 %
26.03.2017 15:02 14,4 C 23,3 C 13,9 C 59 % 0 lf 1022,8 hPa 0,0 l/m 2 min 0 min 637 W/m 27,2 km/h (4 Bft) 97,87 %
26.03.2017 15:04 14,5 C 23,9 C 13,9 C 59 % 0 lf 1022,8 hPa 0,0 l/m 2 min 0 min 617 W/m 20,9 km/h (4 Bft) 97,83 %
26.03.2017 15:06 14,6 C 23,9 C 13,9 C 59 % 0 lf 1022,7 hPa 0,0 l/m 2 min 0 min 606 W/m 16,7 km/h (3 Bft) 93,62 %
26.03.2017 15:08 14,6 C 23,9 C 13,9 C 58 % 0 lf 1022,7 hPa 0,0 l/m 2 min 0 min 603 W/m 16,7 km/h (3 Bft) 97,87 %
26.03.2017 15:10 14,6 C 23,3 C 15,0 C 58 % 0 lf 1022,7 hPa 0,0 l/m 2 min 0 min 607 W/m 16,7 km/h (3 Bft) 91,49 %
26.03.2017 15:12 14,6 C 22,8 C 15,6 C 58 % 0 lf 1022,7 hPa 0,0 l/m 2 min 0 min 606 W/m 18,8 km/h (3 Bft) 95,74 %
26.03.2017 15:14 14,7 C 22,8 C 16,1 C 59 % 0 lf 1022,7 hPa 0,0 l/m 2 min 0 min 600 W/m 18,8 km/h (3 Bft) 93,62 %
26.03.2017 15:16 14,7 C 22,2 C 15,6 C 58 % 0 lf 1022,8 hPa 0,0 l/m 2 min 0 min 600 W/m 16,7 km/h (3 Bft) 93,48 %
26.03.2017 15:18 14,7 C 22,2 C 16,1 C 58 % 0 lf 1022,8 hPa 0,0 l/m 2 min 0 min 584 W/m 20,9 km/h (4 Bft) 95,74 %
26.03.2017 15:20 14,7 C 22,8 C 16,1 C 58 % 0 lf 1022,8 hPa 0,0 l/m 2 min 0 min 584 W/m 14,6 km/h (3 Bft) 94,92 %
26.03.2017 15:22 14,7 C 23,3 C 16,1 C 58 % 0 lf 1022,7 hPa 0,0 l/m 2 min 0 min 593 W/m 12,6 km/h (3 Bft) 88,57 %
26.03.2017 15:24 14,8 C 23,9 C 16,7 C 58 % 0 lf 1022,8 hPa 0,0 l/m 2 min 0 min 599 W/m 16,7 km/h (3 Bft) 95,74 %
26.03.2017 15:26 14,8 C 23,9 C 16,7 C 58 % 0 lf 1022,8 hPa 0,0 l/m 2 min 0 min 592 W/m 20,9 km/h (4 Bft) 93,48 %
26.03.2017 15:28 14,9 C 23,9 C 16,7 C 57 % 0 lf 1022,8 hPa 0,0 l/m 2 min 0 min 586 W/m 16,7 km/h (3 Bft) 91,49 %
26.03.2017 15:30 15,1 C 23,9 C 17,2 C 57 % 0 lf 1022,8 hPa 0,0 l/m 2 min 0 min 585 W/m 14,6 km/h (3 Bft) 93,62 %
26.03.2017 15:32 15,2 C 24,4 C 16,7 C 55 % 0 lf 1022,8 hPa 0,0 l/m 2 min 0 min 592 W/m 10,5 km/h (2 Bft) 89,36 %
26.03.2017 15:34 15,2 C 26,1 C 17,2 C 56 % 0 lf 1022,7 hPa 0,0 l/m 2 min 0 min 585 W/m 10,5 km/h (2 Bft) 97,87 %
26.03.2017 15:36 15,3 C 24,4 C 17,8 C 55 % 0 lf 1022,6 hPa 0,0 l/m 2 min 0 min 567 W/m 23,0 km/h (4 Bft) 93,62 %
26.03.2017 15:38 15,5 C 25,0 C 16,7 C 55 % 0 lf 1022,6 hPa 0,0 l/m 2 min 0 min 552 W/m 18,8 km/h (3 Bft) 95,65 %
26.03.2017 15:40 15,5 C 22,8 C 15,0 C 53 % 0 lf 1022,6 hPa 0,0 l/m 2 min 0 min 537 W/m 18,8 km/h (3 Bft) 95,74 %
26.03.2017 15:42 15,4 C 21,7 C 14,4 C 53 % 0 lf 1022,6 hPa 0,0 l/m 2 min 0 min 526 W/m 20,9 km/h (4 Bft) 95,74 %
26.03.2017 15:44 15,4 C 22,8 C 15,0 C 54 % 0 lf 1022,6 hPa 0,0 l/m 2 min 0 min 541 W/m 18,8 km/h (3 Bft) 93,62 %
26.03.2017 15:46 15,4 C 21,7 C 15,0 C 53 % 0 lf 1022,6 hPa 0,0 l/m 2 min 0 min 551 W/m 20,9 km/h (4 Bft) 95,74 %
26.03.2017 15:48 15,4 C 21,7 C 15,0 C 53 % 0 lf 1022,6 hPa 0,0 l/m 2 min 0 min 538 W/m 18,8 km/h (3 Bft) 91,49 %
26.03.2017 15:50 15,4 C 22,2 C 14,4 C 53 % 0 lf 1022,6 hPa 0,0 l/m 2 min 0 min 544 W/m 12,6 km/h (3 Bft) 91,30 %
26.03.2017 15:52 15,4 C 22,2 C 14,4 C 53 % 0 lf 1022,6 hPa 0,0 l/m 2 min 0 min 539 W/m 14,6 km/h (3 Bft) 93,62 %
26.03.2017 15:54 15,3 C 21,7 C 14,4 C 53 % 0 lf 1022,5 hPa 0,0 l/m 2 min 0 min 531 W/m 20,9 km/h (4 Bft) 91,49 %
26.03.2017 15:56 15,4 C 22,8 C 14,4 C 54 % 0 lf 1022,6 hPa 0,0 l/m 2 min 0 min 525 W/m 10,5 km/h (2 Bft) 93,62 %
26.03.2017 15:58 15,4 C 22,2 C 14,4 C 53 % 0 lf 1022,5 hPa 0,0 l/m 2 min 0 min 529 W/m 10,5 km/h (2 Bft) 95,74 %
26.03.2017 16:00 15,4 C 22,8 C 14,4 C 52 % 0 lf 1022,5 hPa 0,0 l/m 2 min 0 min 525 W/m 6,3 km/h (2 Bft) 93,62 %
26.03.2017 16:02 15,4 C 23,3 C 14,4 C 53 % 0 lf 1022,5 hPa 0,0 l/m 2 min 0 min 533 W/m 16,7 km/h (3 Bft) 93,48 %
26.03.2017 16:04 15,5 C 23,3 C 14,4 C 54 % 0 lf 1022,5 hPa 0,0 l/m 2 min 0 min 525 W/m 14,6 km/h (3 Bft) 93,62 %
26.03.2017 16:06 15,6 C 23,9 C 14,4 C 54 % 0 lf 1022,4 hPa 0,0 l/m 2 min 0 min 521 W/m 16,7 km/h (3 Bft) 93,62 %
26.03.2017 16:08 15,7 C 23,9 C 14,4 C 53 % 0 lf 1022,4 hPa 0,0 l/m 2 min 0 min 518 W/m 18,8 km/h (3 Bft) 91,49 %
26.03.2017 16:10 15,8 C 24,4 C 14,4 C 53 % 0 lf 1022,4 hPa 0,0 l/m 2 min 0 min 516 W/m 12,6 km/h (3 Bft) 95,74 %
26.03.2017 16:12 15,8 C 22,2 C 13,9 C 52 % 0 lf 1022,4 hPa 0,0 l/m 2 min 0 min 518 W/m 20,9 km/h (4 Bft) 95,74 %
26.03.2017 16:14 15,8 C 22,2 C 13,9 C 52 % 0 lf 1022,4 hPa 0,0 l/m 2 min 0 min 509 W/m 14,6 km/h (3 Bft) 97,83 %
26.03.2017 16:16 15,7 C 21,7 C 13,9 C 52 % 0 lf 1022,4 hPa 0,0 l/m 2 min 0 min 499 W/m 14,6 km/h (3 Bft) 91,49 %
26.03.2017 16:18 15,6 C 21,7 C 13,9 C 52 % 0 lf 1022,3 hPa 0,0 l/m 2 min 0 min 494 W/m 16,7 km/h (3 Bft) 97,87 %
26.03.2017 16:20 15,6 C 21,7 C 13,9 C 53 % 0 lf 1022,2 hPa 0,0 l/m 2 min 0 min 487 W/m 16,7 km/h (3 Bft) 95,74 %
26.03.2017 16:22 15,6 C 21,1 C 13,9 C 53 % 0 lf 1022,3 hPa 0,0 l/m 2 min 0 min 483 W/m 27,2 km/h (4 Bft) 97,87 %
26.03.2017 16:24 15,5 C 21,1 C 13,9 C 53 % 0 lf 1022,3 hPa 0,0 l/m 2 min 0 min 474 W/m 25,1 km/h (4 Bft) 95,74 %
26.03.2017 16:26 15,5 C 21,1 C 13,9 C 53 % 0 lf 1022,3 hPa 0,0 l/m 2 min 0 min 469 W/m 23,0 km/h (4 Bft) 97,83 %
26.03.2017 16:28 15,5 C 22,2 C 13,9 C 54 % 0 lf 1022,2 hPa 0,0 l/m 2 min 0 min 468 W/m 16,7 km/h (3 Bft) 97,87 %
26.03.2017 16:30 15,6 C 22,8 C 14,4 C 54 % 0 lf 1022,3 hPa 0,0 l/m 2 min 0 min 466 W/m 10,5 km/h (2 Bft) 97,87 %
26.03.2017 16:32 15,6 C 23,3 C 13,9 C 53 % 0 lf 1022,2 hPa 0,0 l/m 2 min 0 min 463 W/m 14,6 km/h (3 Bft) 97,87 %
26.03.2017 16:34 15,7 C 22,8 C 13,9 C 53 % 0 lf 1022,2 hPa 0,0 l/m 2 min 0 min 457 W/m 14,6 km/h (3 Bft) 100,00 %
26.03.2017 16:36 15,7 C 23,3 C 14,4 C 53 % 0 lf 1022,1 hPa 0,0 l/m 2 min 0 min 457 W/m 10,5 km/h (2 Bft) 95,74 %
26.03.2017 16:38 15,8 C 22,8 C 14,4 C 53 % 0 lf 1022,2 hPa 0,0 l/m 2 min 0 min 455 W/m 20,9 km/h (4 Bft) 93,48 %
26.03.2017 16:40 15,8 C 21,7 C 14,4 C 51 % 0 lf 1022,2 hPa 0,0 l/m 2 min 0 min 454 W/m 16,7 km/h (3 Bft) 100,00 %
26.03.2017 16:42 15,9 C 22,8 C 14,4 C 52 % 0 lf 1022,2 hPa 0,0 l/m 2 min 0 min 448 W/m 18,8 km/h (3 Bft) 93,62 %
26.03.2017 16:44 16,0 C 23,9 C 14,4 C 53 % 0 lf 1022,2 hPa 0,0 l/m 2 min 0 min 442 W/m 18,8 km/h (3 Bft) 95,74 %
26.03.2017 16:46 16,0 C 22,2 C 14,4 C 50 % 0 lf 1022,2 hPa 0,0 l/m 2 min 0 min 441 W/m 20,9 km/h (4 Bft) 100,00 %
26.03.2017 16:48 16,0 C 22,2 C 13,9 C 50 % 0 lf 1022,2 hPa 0,0 l/m 2 min 0 min 439 W/m 16,7 km/h (3 Bft) 97,87 %
26.03.2017 16:50 16,0 C 21,7 C 13,9 C 50 % 0 lf 1022,2 hPa 0,0 l/m 2 min 0 min 434 W/m 16,7 km/h (3 Bft) 100,00 %
26.03.2017 16:52 16,0 C 22,2 C 13,9 C 50 % 0 lf 1022,2 hPa 0,0 l/m 2 min 0 min 425 W/m 14,6 km/h (3 Bft) 97,87 %
26.03.2017 16:54 16,0 C 22,8 C 13,9 C 51 % 0 lf 1022,2 hPa 0,0 l/m 2 min 0 min 424 W/m 12,6 km/h (3 Bft) 100,00 %
26.03.2017 16:56 15,9 C 22,8 C 13,9 C 50 % 0 lf 1022,1 hPa 0,0 l/m 2 min 0 min 420 W/m 14,6 km/h (3 Bft) 97,87 %
26.03.2017 16:58 15,9 C 23,3 C 14,4 C 51 % 0 lf 1022,1 hPa 0,0 l/m 2 min 0 min 416 W/m 18,8 km/h (3 Bft) 97,87 %
26.03.2017 17:00 16,0 C 23,3 C 14,4 C 51 % 0 lf 1022,2 hPa 0,0 l/m 2 min 0 min 411 W/m 18,8 km/h (3 Bft) 93,62 %
26.03.2017 17:02 16,1 C 23,9 C 14,4 C 51 % 0 lf 1022,2 hPa 0,0 l/m 2 min 0 min 407 W/m 18,8 km/h (3 Bft) 97,83 %
26.03.2017 17:04 16,1 C 23,3 C 14,4 C 50 % 0 lf 1022,1 hPa 0,0 l/m 2 min 0 min 399 W/m 20,9 km/h (4 Bft) 97,87 %
26.03.2017 17:06 16,1 C 22,2 C 14,4 C 49 % 0 lf 1022,1 hPa 0,0 l/m 2 min 0 min 391 W/m 18,8 km/h (3 Bft) 100,00 %
26.03.2017 17:08 16,1 C 22,8 C 14,4 C 50 % 0 lf 1022,1 hPa 0,0 l/m 2 min 0 min 386 W/m 16,7 km/h (3 Bft) 97,87 %
26.03.2017 17:10 16,2 C 22,8 C 14,4 C 50 % 0 lf 1022,1 hPa 0,0 l/m 2 min 0 min 377 W/m 18,8 km/h (3 Bft) 100,00 %
26.03.2017 17:12 16,2 C 22,2 C 13,9 C 49 % 0 lf 1022,1 hPa 0,0 l/m 2 min 0 min 373 W/m 16,7 km/h (3 Bft) 97,83 %
26.03.2017 17:14 16,2 C 22,8 C 13,9 C 50 % 0 lf 1022,1 hPa 0,0 l/m 2 min 0 min 369 W/m 14,6 km/h (3 Bft) 93,62 %
26.03.2017 17:16 16,2 C 22,8 C 13,9 C 50 % 0 lf 1022,0 hPa 0,0 l/m 2 min 0 min 355 W/m 12,6 km/h (3 Bft) 97,87 %
26.03.2017 17:18 16,2 C 22,8 C 13,9 C 49 % 0 lf 1022,1 hPa 0,0 l/m 2 min 0 min 351 W/m 12,6 km/h (3 Bft) 95,74 %
26.03.2017 17:20 16,2 C 22,8 C 13,9 C 49 % 0 lf 1022,0 hPa 0,0 l/m 2 min 0 min 346 W/m 14,6 km/h (3 Bft) 96,55 %
26.03.2017 17:22 16,3 C 22,8 C 13,9 C 49 % 0 lf 1021,9 hPa 0,0 l/m 2 min 0 min 346 W/m 16,7 km/h (3 Bft) 94,44 %
26.03.2017 17:24 16,3 C 23,3 C 13,9 C 48 % 0 lf 1021,9 hPa 0,0 l/m 2 min 0 min 337 W/m 10,5 km/h (2 Bft) 95,65 %
26.03.2017 17:26 16,4 C 22,8 C 13,9 C 48 % 0 lf 1021,9 hPa 0,0 l/m 2 min 0 min 327 W/m 14,6 km/h (3 Bft) 95,74 %
26.03.2017 17:28 16,4 C 21,7 C 13,9 C 48 % 0 lf 1021,9 hPa 0,0 l/m 2 min 0 min 322 W/m 18,8 km/h (3 Bft) 97,87 %
26.03.2017 17:30 16,4 C 20,6 C 13,9 C 46 % 0 lf 1021,8 hPa 0,0 l/m 2 min 0 min 316 W/m 20,9 km/h (4 Bft) 97,87 %
26.03.2017 17:32 16,4 C 21,7 C 13,9 C 47 % 0 lf 1021,8 hPa 0,0 l/m 2 min 0 min 317 W/m 20,9 km/h (4 Bft) 95,74 %
26.03.2017 17:34 16,5 C 21,1 C 13,9 C 47 % 0 lf 1021,8 hPa 0,0 l/m 2 min 0 min 315 W/m 18,8 km/h (3 Bft) 95,74 %
26.03.2017 17:36 16,5 C 21,7 C 13,9 C 48 % 0 lf 1021,8 hPa 0,0 l/m 2 min 0 min 311 W/m 23,0 km/h (4 Bft) 95,65 %
26.03.2017 17:38 16,6 C 22,2 C 13,9 C 48 % 0 lf 1021,8 hPa 0,0 l/m 2 min 0 min 301 W/m 23,0 km/h (4 Bft) 95,74 %
26.03.2017 17:40 16,6 C 22,2 C 13,9 C 48 % 0 lf 1021,7 hPa 0,0 l/m 2 min 0 min 289 W/m 18,8 km/h (3 Bft) 97,87 %
26.03.2017 17:42 16,6 C 22,2 C 13,9 C 48 % 0 lf 1021,7 hPa 0,0 l/m 2 min 0 min 281 W/m 14,6 km/h (3 Bft) 95,74 %
26.03.2017 17:44 16,6 C 22,2 C 13,9 C 48 % 0 lf 1021,7 hPa 0,0 l/m 2 min 0 min 275 W/m 10,5 km/h (2 Bft) 97,87 %
26.03.2017 17:46 16,7 C 21,7 C 13,3 C 48 % 0 lf 1021,6 hPa 0,0 l/m 2 min 0 min 272 W/m 18,8 km/h (3 Bft) 93,62 %
26.03.2017 17:48 16,6 C 21,1 C 13,9 C 47 % 0 lf 1021,7 hPa 0,0 l/m 2 min 0 min 268 W/m 16,7 km/h (3 Bft) 93,48 %
26.03.2017 17:50 16,6 C 20,6 C 13,9 C 47 % 0 lf 1021,7 hPa 0,0 l/m 2 min 0 min 263 W/m 18,8 km/h (3 Bft) 96,61 %
26.03.2017 17:52 16,6 C 20,6 C 13,3 C 48 % 0 lf 1021,7 hPa 0,0 l/m 2 min 0 min 254 W/m 16,7 km/h (3 Bft) 94,29 %
26.03.2017 17:54 16,6 C 20,6 C 13,3 C 47 % 0 lf 1021,7 hPa 0,0 l/m 2 min 0 min 249 W/m 16,7 km/h (3 Bft) 91,49 %
26.03.2017 17:56 16,6 C 21,1 C 13,3 C 47 % 0 lf 1021,7 hPa 0,0 l/m 2 min 0 min 244 W/m 14,6 km/h (3 Bft) 93,62 %
26.03.2017 17:58 16,6 C 20,0 C 13,3 C 47 % 0 lf 1021,7 hPa 0,0 l/m 2 min 0 min 238 W/m 16,7 km/h (3 Bft) 100,00 %
26.03.2017 18:00 16,6 C 19,4 C 13,3 C 47 % 0 lf 1021,7 hPa 0,0 l/m 2 min 0 min 233 W/m 12,6 km/h (3 Bft) 97,83 %
26.03.2017 18:02 16,6 C 19,4 C 13,3 C 47 % 0 lf 1021,7 hPa 0,0 l/m 2 min 0 min 225 W/m 16,7 km/h (3 Bft) 97,87 %
26.03.2017 18:04 16,5 C 20,0 C 13,3 C 48 % 0 lf 1021,7 hPa 0,0 l/m 2 min 0 min 218 W/m 16,7 km/h (3 Bft) 93,62 %
26.03.2017 18:06 16,5 C 20,0 C 13,3 C 48 % 0 lf 1021,7 hPa 0,0 l/m 2 min 0 min 211 W/m 18,8 km/h (3 Bft) 93,62 %
26.03.2017 18:08 16,5 C 18,9 C 13,3 C 47 % 0 lf 1021,7 hPa 0,0 l/m 2 min 0 min 204 W/m 18,8 km/h (3 Bft) 95,74 %
26.03.2017 18:10 16,4 C 19,4 C 13,3 C 47 % 0 lf 1021,7 hPa 0,0 l/m 2 min 0 min 198 W/m 16,7 km/h (3 Bft) 97,87 %
26.03.2017 18:12 16,4 C 19,4 C 13,3 C 48 % 0 lf 1021,7 hPa 0,0 l/m 2 min 0 min 193 W/m 14,6 km/h (3 Bft) 97,83 %
26.03.2017 18:14 16,4 C 19,4 C 13,3 C 48 % 0 lf 1021,7 hPa 0,0 l/m 2 min 0 min 188 W/m 16,7 km/h (3 Bft) 91,49 %
26.03.2017 18:16 16,4 C 19,4 C 12,8 C 48 % 0 lf 1021,7 hPa 0,0 l/m 2 min 0 min 180 W/m 16,7 km/h (3 Bft) 80,85 %
26.03.2017 18:18 16,4 C 19,4 C 12,8 C 48 % 0 lf 1021,7 hPa 0,0 l/m 2 min 0 min 173 W/m 16,7 km/h (3 Bft) 89,36 %
26.03.2017 18:20 16,3 C 18,9 C 12,8 C 47 % 0 lf 1021,7 hPa 0,0 l/m 2 min 0 min 165 W/m 16,7 km/h (3 Bft) 87,23 %
26.03.2017 18:22 16,3 C 18,3 C 12,8 C 47 % 0 lf 1021,6 hPa 0,0 l/m 2 min 0 min 159 W/m 16,7 km/h (3 Bft) 82,61 %
26.03.2017 18:24 16,3 C 18,3 C 12,8 C 48 % 0 lf 1021,7 hPa 0,0 l/m 2 min 0 min 152 W/m 23,0 km/h (4 Bft) 70,21 %
26.03.2017 18:26 16,3 C 18,3 C 12,8 C 48 % 0 lf 1021,7 hPa 0,0 l/m 2 min 0 min 146 W/m 23,0 km/h (4 Bft) 72,34 %
26.03.2017 18:28 16,2 C 18,3 C 12,8 C 47 % 0 lf 1021,7 hPa 0,0 l/m 2 min 0 min 137 W/m 18,8 km/h (3 Bft) 76,60 %
26.03.2017 18:30 16,2 C 17,8 C 12,8 C 48 % 0 lf 1021,7 hPa 0,0 l/m 2 min 0 min 132 W/m 18,8 km/h (3 Bft) 78,72 %
26.03.2017 18:32 16,2 C 17,2 C 12,8 C 48 % 0 lf 1021,7 hPa 0,0 l/m 2 min 0 min 127 W/m 16,7 km/h (3 Bft) 80,85 %
26.03.2017 18:34 16,1 C 17,2 C 12,8 C 48 % 0 lf 1021,6 hPa 0,0 l/m 2 min 0 min 121 W/m 18,8 km/h (3 Bft) 80,43 %
26.03.2017 18:36 16,1 C 17,2 C 12,2 C 48 % 0 lf 1021,7 hPa 0,0 l/m 2 min 0 min 118 W/m 16,7 km/h (3 Bft) 91,49 %
26.03.2017 18:38 16,1 C 16,7 C 12,2 C 49 % 0 lf 1021,6 hPa 0,0 l/m 2 min 0 min 113 W/m 20,9 km/h (4 Bft) 93,62 %
26.03.2017 18:40 16,0 C 16,7 C 12,2 C 48 % 0 lf 1021,7 hPa 0,0 l/m 2 min 0 min 109 W/m 16,7 km/h (3 Bft) 95,74 %
26.03.2017 18:42 16,0 C 16,1 C 12,2 C 48 % 0 lf 1021,7 hPa 0,0 l/m 2 min 0 min 103 W/m 18,8 km/h (3 Bft) 91,49 %
26.03.2017 18:44 15,9 C 16,1 C 12,2 C 48 % 0 lf 1021,7 hPa 0,0 l/m 2 min 0 min 99 W/m 20,9 km/h (4 Bft) 95,74 %
26.03.2017 18:46 15,9 C 15,6 C 12,2 C 48 % 0 lf 1021,7 hPa 0,0 l/m 2 min 0 min 95 W/m 16,7 km/h (3 Bft) 89,13 %
26.03.2017 18:48 15,9 C 15,6 C 12,2 C 49 % 0 lf 1021,8 hPa 0,0 l/m 2 min 0 min 91 W/m 16,7 km/h (3 Bft) 76,60 %
26.03.2017 18:50 15,8 C 15,6 C 12,2 C 49 % 0 lf 1021,7 hPa 0,0 l/m 2 min 0 min 87 W/m 14,6 km/h (3 Bft) 80,85 %
26.03.2017 18:52 15,8 C 15,6 C 12,2 C 49 % 0 lf 1021,7 hPa 0,0 l/m 2 min 0 min 84 W/m 14,6 km/h (3 Bft) 82,98 %
26.03.2017 18:54 15,8 C 15,6 C 11,7 C 49 % 0 lf 1021,7 hPa 0,0 l/m 2 min 0 min 80 W/m 20,9 km/h (4 Bft) 80,85 %
26.03.2017 18:56 15,7 C 15,0 C 11,7 C 49 % 0 lf 1021,7 hPa 0,0 l/m 2 min 0 min 78 W/m 18,8 km/h (3 Bft) 78,72 %
26.03.2017 18:58 15,7 C 15,0 C 11,7 C 49 % 0 lf 1021,7 hPa 0,0 l/m 2 min 0 min 79 W/m 16,7 km/h (3 Bft) 76,09 %
26.03.2017 19:00 15,6 C 15,0 C 11,7 C 49 % 0 lf 1021,7 hPa 0,0 l/m 2 min 0 min 75 W/m 23,0 km/h (4 Bft) 85,11 %
26.03.2017 19:02 15,6 C 15,0 C 11,7 C 49 % 0 lf 1021,7 hPa 0,0 l/m 2 min 0 min 72 W/m 18,8 km/h (3 Bft) 85,11 %
26.03.2017 19:04 15,5 C 15,0 C 11,7 C 49 % 0 lf 1021,7 hPa 0,0 l/m 2 min 0 min 70 W/m 20,9 km/h (4 Bft) 93,62 %
26.03.2017 19:06 15,4 C 14,4 C 11,7 C 50 % 0 lf 1021,7 hPa 0,0 l/m 2 min 0 min 66 W/m 18,8 km/h (3 Bft) 92,00 %
26.03.2017 19:08 15,4 C 14,4 C 11,7 C 50 % 0 lf 1021,8 hPa 0,0 l/m 2 min 0 min 61 W/m 16,7 km/h (3 Bft) 95,65 %
26.03.2017 19:10 15,3 C 14,4 C 11,7 C 50 % 0 lf 1021,7 hPa 0,0 l/m 2 min 0 min 57 W/m 16,7 km/h (3 Bft) 91,49 %
26.03.2017 19:12 15,3 C 14,4 C 11,7 C 50 % 0 lf 1021,7 hPa 0,0 l/m 2 min 0 min 54 W/m 23,0 km/h (4 Bft) 91,49 %
26.03.2017 19:14 15,2 C 14,4 C 11,7 C 50 % 0 lf 1021,7 hPa 0,0 l/m 2 min 0 min 53 W/m 20,9 km/h (4 Bft) 89,36 %
26.03.2017 19:16 15,1 C 14,4 C 11,1 C 50 % 0 lf 1021,7 hPa 0,0 l/m 2 min 0 min 49 W/m 25,1 km/h (4 Bft) 82,98 %
26.03.2017 19:18 15,1 C 14,4 C 11,1 C 50 % 0 lf 1021,7 hPa 0,0 l/m 2 min 0 min 47 W/m 25,1 km/h (4 Bft) 82,98 %
26.03.2017 19:20 15,0 C 14,4 C 11,1 C 50 % 0 lf 1021,7 hPa 0,0 l/m 2 min 0 min 45 W/m 20,9 km/h (4 Bft) 95,65 %
26.03.2017 19:22 14,9 C 13,9 C 11,1 C 51 % 0 lf 1021,7 hPa 0,0 l/m 2 min 0 min 43 W/m 18,8 km/h (3 Bft) 91,49 %
26.03.2017 19:24 14,8 C 13,9 C 11,1 C 51 % 0 lf 1021,7 hPa 0,0 l/m 2 min 0 min 41 W/m 18,8 km/h (3 Bft) 95,74 %
26.03.2017 19:26 14,8 C 13,9 C 11,1 C 51 % 0 lf 1021,7 hPa 0,0 l/m 2 min 0 min 40 W/m 25,1 km/h (4 Bft) 95,74 %
26.03.2017 19:28 14,7 C 13,9 C 11,1 C 51 % 0 lf 1021,6 hPa 0,0 l/m 2 min 0 min 37 W/m 16,7 km/h (3 Bft) 80,85 %
26.03.2017 19:30 14,6 C 13,9 C 10,6 C 51 % 0 lf 1021,7 hPa 0,0 l/m 2 min 0 min 36 W/m 18,8 km/h (3 Bft) 89,36 %
26.03.2017 19:32 14,6 C 13,9 C 10,6 C 51 % 0 lf 1021,7 hPa 0,0 l/m 2 min 0 min 27 W/m 12,6 km/h (3 Bft) 95,65 %
26.03.2017 19:34 14,4 C 13,3 C 10,6 C 52 % 0 lf 1021,7 hPa 0,0 l/m 2 min 0 min 26 W/m 16,7 km/h (3 Bft) 95,74 %
26.03.2017 19:36 14,4 C 13,3 C 10,6 C 52 % 0 lf 1021,7 hPa 0,0 l/m 2 min 0 min 26 W/m 23,0 km/h (4 Bft) 95,74 %
26.03.2017 19:38 14,3 C 13,3 C 10,0 C 52 % 0 lf 1021,7 hPa 0,0 l/m 2 min 0 min 25 W/m 20,9 km/h (4 Bft) 93,62 %
26.03.2017 19:40 14,2 C 13,3 C 10,0 C 52 % 0 lf 1021,7 hPa 0,0 l/m 2 min 0 min 24 W/m 20,9 km/h (4 Bft) 93,62 %
26.03.2017 19:42 14,2 C 13,3 C 10,0 C 52 % 0 lf 1021,8 hPa 0,0 l/m 2 min 0 min 22 W/m 20,9 km/h (4 Bft) 97,87 %
26.03.2017 19:44 14,2 C 13,3 C 10,0 C 53 % 0 lf 1021,8 hPa 0,0 l/m 2 min 0 min 20 W/m 27,2 km/h (4 Bft) 93,48 %
26.03.2017 19:46 14,1 C 12,8 C 10,0 C 53 % 0 lf 1021,8 hPa 0,0 l/m 0 min 0 min 17 W/m 14,6 km/h (3 Bft) 97,87 %
26.03.2017 19:48 14,0 C 12,8 C 10,0 C 53 % 0 lf 1021,9 hPa 0,0 l/m 0 min 0 min 15 W/m 10,5 km/h (2 Bft) 93,62 %
26.03.2017 19:50 13,9 C 12,8 C 10,0 C 53 % 0 lf 1021,9 hPa 0,0 l/m 0 min 0 min 13 W/m 14,6 km/h (3 Bft) 95,74 %
26.03.2017 19:52 13,8 C 12,8 C 10,0 C 54 % 0 lf 1021,9 hPa 0,0 l/m 0 min 0 min 11 W/m 12,6 km/h (3 Bft) 93,62 %
26.03.2017 19:54 13,8 C 12,8 C 10,0 C 54 % 0 lf 1021,9 hPa 0,0 l/m 0 min 0 min 10 W/m 14,6 km/h (3 Bft) 95,74 %
26.03.2017 19:56 13,7 C 12,2 C 9,4 C 54 % 0 lf 1021,9 hPa 0,0 l/m 0 min 0 min 9 W/m 18,8 km/h (3 Bft) 93,48 %
26.03.2017 19:58 13,6 C 12,2 C 9,4 C 54 % 0 lf 1021,9 hPa 0,0 l/m 0 min 0 min 7 W/m 16,7 km/h (3 Bft) 97,87 %
26.03.2017 20:00 13,6 C 12,2 C 9,4 C 54 % 0 lf 1021,9 hPa 0,0 l/m 0 min 0 min 7 W/m 14,6 km/h (3 Bft) 95,74 %
26.03.2017 20:02 13,5 C 12,2 C 8,9 C 55 % 0 lf 1021,9 hPa 0,0 l/m 0 min 0 min 5 W/m 10,5 km/h (2 Bft) 95,74 %
26.03.2017 20:04 13,4 C 12,2 C 8,9 C 55 % 0 lf 1022,0 hPa 0,0 l/m 0 min 0 min 5 W/m 18,8 km/h (3 Bft) 95,74 %
26.03.2017 20:06 13,3 C 12,2 C 8,9 C 55 % 0 lf 1022,0 hPa 0,0 l/m 0 min 0 min 5 W/m 14,6 km/h (3 Bft) 97,83 %
26.03.2017 20:08 13,2 C 12,2 C 8,9 C 55 % 0 lf 1022,0 hPa 0,0 l/m 0 min 0 min 5 W/m 18,8 km/h (3 Bft) 97,87 %
26.03.2017 20:10 13,2 C 12,2 C 8,9 C 55 % 0 lf 1022,0 hPa 0,0 l/m 0 min 0 min 5 W/m 14,6 km/h (3 Bft) 97,87 %
26.03.2017 20:12 13,1 C 12,2 C 8,9 C 55 % 0 lf 1022,0 hPa 0,0 l/m 0 min 0 min 0 W/m 12,6 km/h (3 Bft) 97,87 %
26.03.2017 20:14 13,0 C 12,2 C 8,9 C 56 % 0 lf 1022,0 hPa 0,0 l/m 0 min 0 min 3 W/m 14,6 km/h (3 Bft) 95,74 %
26.03.2017 20:16 12,9 C 11,7 C 8,9 C 56 % 0 lf 1022,0 hPa 0,0 l/m 0 min 0 min 0 W/m 10,5 km/h (2 Bft) 97,87 %
26.03.2017 20:18 12,9 C 11,7 C 8,3 C 56 % 0 lf 1022,1 hPa 0,0 l/m 0 min 0 min 0 W/m 14,6 km/h (3 Bft) 95,65 %
26.03.2017 20:20 12,8 C 11,7 C 7,8 C 56 % 0 lf 1022,1 hPa 0,0 l/m 0 min 0 min 0 W/m 10,5 km/h (2 Bft) 89,36 %
26.03.2017 20:22 12,8 C 11,7 C 7,8 C 56 % 0 lf 1022,2 hPa 0,0 l/m 0 min 0 min 0 W/m 10,5 km/h (2 Bft) 97,87 %
26.03.2017 20:24 12,7 C 11,7 C 7,8 C 56 % 0 lf 1022,2 hPa 0,0 l/m 0 min 0 min 0 W/m 16,7 km/h (3 Bft) 95,74 %
26.03.2017 20:26 12,7 C 11,7 C 8,3 C 57 % 0 lf 1022,2 hPa 0,0 l/m 0 min 0 min 4 W/m 14,6 km/h (3 Bft) 97,87 %
26.03.2017 20:28 12,6 C 11,7 C 8,3 C 57 % 0 lf 1022,3 hPa 0,0 l/m 0 min 0 min 0 W/m 12,6 km/h (3 Bft) 93,62 %
26.03.2017 20:30 12,5 C 11,7 C 8,3 C 57 % 0 lf 1022,3 hPa 0,0 l/m 0 min 0 min 0 W/m 10,5 km/h (2 Bft) 97,83 %
26.03.2017 20:32 12,4 C 11,7 C 8,3 C 58 % 0 lf 1022,3 hPa 0,0 l/m 0 min 0 min 5 W/m 14,6 km/h (3 Bft) 93,62 %
26.03.2017 20:34 12,4 C 11,1 C 8,3 C 58 % 0 lf 1022,3 hPa 0,0 l/m 0 min 0 min 5 W/m 10,5 km/h (2 Bft) 97,87 %
26.03.2017 20:36 12,3 C 11,1 C 8,3 C 58 % 0 lf 1022,3 hPa 0,0 l/m 0 min 0 min 5 W/m 10,5 km/h (2 Bft) 95,74 %
26.03.2017 20:38 12,3 C 11,1 C 7,8 C 58 % 0 lf 1022,3 hPa 0,0 l/m 0 min 0 min 3 W/m 10,5 km/h (2 Bft) 95,74 %
26.03.2017 20:40 12,3 C 11,1 C 7,8 C 58 % 0 lf 1022,3 hPa 0,0 l/m 0 min 0 min 5 W/m 8,4 km/h (2 Bft) 97,87 %
26.03.2017 20:42 12,2 C 11,1 C 7,2 C 59 % 0 lf 1022,2 hPa 0,0 l/m 0 min 0 min 5 W/m 10,5 km/h (2 Bft) 95,65 %
26.03.2017 20:44 12,2 C 11,1 C 7,2 C 59 % 0 lf 1022,2 hPa 0,0 l/m 0 min 0 min 5 W/m 14,6 km/h (3 Bft) 97,87 %
26.03.2017 20:46 12,1 C 11,1 C 7,2 C 59 % 0 lf 1022,3 hPa 0,0 l/m 0 min 0 min 5 W/m 14,6 km/h (3 Bft) 93,62 %
26.03.2017 20:48 12,1 C 11,1 C 7,2 C 59 % 0 lf 1022,3 hPa 0,0 l/m 0 min 0 min 5 W/m 12,6 km/h (3 Bft) 95,74 %
26.03.2017 20:50 12,0 C 11,1 C 7,8 C 59 % 0 lf 1022,3 hPa 0,0 l/m 0 min 0 min 5 W/m 14,6 km/h (3 Bft) 93,62 %
26.03.2017 20:52 12,0 C 10,6 C 7,2 C 60 % 0 lf 1022,3 hPa 0,0 l/m 0 min 0 min 5 W/m 10,5 km/h (2 Bft) 97,87 %
26.03.2017 20:54 11,9 C 11,1 C 7,2 C 60 % 0 lf 1022,3 hPa 0,0 l/m 0 min 0 min 5 W/m 14,6 km/h (3 Bft) 87,50 %
26.03.2017 20:56 11,9 C 11,1 C 7,8 C 60 % 0 lf 1022,3 hPa 0,0 l/m 0 min 0 min 5 W/m 14,6 km/h (3 Bft) 95,74 %
26.03.2017 20:58 11,8 C 11,1 C 7,2 C 61 % 0 lf 1022,2 hPa 0,0 l/m 0 min 0 min 5 W/m 8,4 km/h (2 Bft) 97,83 %
26.03.2017 21:00 11,8 C 11,1 C 7,2 C 61 % 0 lf 1022,3 hPa 0,0 l/m 0 min 0 min 5 W/m 18,8 km/h (3 Bft) 95,74 %
26.03.2017 21:02 11,7 C 11,1 C 7,2 C 61 % 0 lf 1022,4 hPa 0,0 l/m 0 min 0 min 5 W/m 12,6 km/h (3 Bft) 91,49 %
26.03.2017 21:04 11,7 C 11,1 C 7,2 C 61 % 0 lf 1022,4 hPa 0,0 l/m 0 min 0 min 5 W/m 16,7 km/h (3 Bft) 97,87 %
26.03.2017 21:06 11,6 C 11,1 C 7,2 C 62 % 0 lf 1022,4 hPa 0,0 l/m 0 min 0 min 5 W/m 10,5 km/h (2 Bft) 97,87 %
26.03.2017 21:08 11,6 C 10,6 C 7,2 C 62 % 0 lf 1022,4 hPa 0,0 l/m 0 min 0 min 5 W/m 8,4 km/h (2 Bft) 97,87 %
26.03.2017 21:10 11,6 C 10,6 C 7,2 C 62 % 0 lf 1022,4 hPa 0,0 l/m 0 min 0 min 0 W/m 14,6 km/h (3 Bft) 95,65 %
26.03.2017 21:12 11,5 C 10,6 C 7,2 C 62 % 0 lf 1022,4 hPa 0,0 l/m 0 min 0 min 0 W/m 16,7 km/h (3 Bft) 97,87 %
26.03.2017 21:14 11,4 C 10,6 C 7,2 C 63 % 0 lf 1022,5 hPa 0,0 l/m 0 min 0 min 0 W/m 14,6 km/h (3 Bft) 97,87 %
26.03.2017 21:16 11,4 C 10,6 C 7,2 C 63 % 0 lf 1022,5 hPa 0,0 l/m 0 min 0 min 0 W/m 14,6 km/h (3 Bft) 95,74 %
26.03.2017 21:18 11,4 C 10,6 C 7,2 C 63 % 0 lf 1022,5 hPa 0,0 l/m 0 min 0 min 0 W/m 10,5 km/h (2 Bft) 97,87 %
26.03.2017 21:20 11,3 C 10,6 C 7,2 C 63 % 0 lf 1022,5 hPa 0,0 l/m 0 min 0 min 0 W/m 10,5 km/h (2 Bft) 95,74 %
26.03.2017 21:22 11,3 C 10,6 C 7,2 C 64 % 0 lf 1022,5 hPa 0,0 l/m 0 min 0 min 0 W/m 16,7 km/h (3 Bft) 97,83 %
26.03.2017 21:24 11,3 C 10,6 C 6,7 C 64 % 0 lf 1022,5 hPa 0,0 l/m 0 min 0 min 0 W/m 14,6 km/h (3 Bft) 100,00 %
26.03.2017 21:26 11,2 C 10,6 C 6,7 C 64 % 0 lf 1022,5 hPa 0,0 l/m 0 min 0 min 5 W/m 10,5 km/h (2 Bft) 100,00 %
26.03.2017 21:28 11,2 C 10,6 C 6,7 C 64 % 0 lf 1022,5 hPa 0,0 l/m 0 min 0 min 0 W/m 8,4 km/h (2 Bft) 97,87 %
26.03.2017 21:30 11,2 C 10,6 C 6,7 C 64 % 0 lf 1022,6 hPa 0,0 l/m 0 min 0 min 0 W/m 10,5 km/h (2 Bft) 95,74 %
26.03.2017 21:32 11,1 C 10,0 C 6,7 C 64 % 0 lf 1022,5 hPa 0,0 l/m 0 min 0 min 0 W/m 10,5 km/h (2 Bft) 93,62 %
26.03.2017 21:34 11,1 C 10,0 C 6,1 C 64 % 0 lf 1022,5 hPa 0,0 l/m 0 min 0 min 0 W/m 8,4 km/h (2 Bft) 93,48 %
26.03.2017 21:36 11,1 C 10,0 C 6,1 C 65 % 0 lf 1022,6 hPa 0,0 l/m 0 min 0 min 0 W/m 12,6 km/h (3 Bft) 85,11 %
26.03.2017 21:38 11,0 C 10,6 C 6,1 C 65 % 0 lf 1022,5 hPa 0,0 l/m 0 min 0 min 0 W/m 14,6 km/h (3 Bft) 91,49 %
26.03.2017 21:40 11,0 C 10,6 C 6,1 C 65 % 0 lf 1022,6 hPa 0,0 l/m 0 min 0 min 0 W/m 16,7 km/h (3 Bft) 85,11 %
26.03.2017 21:42 10,9 C 10,0 C 6,1 C 66 % 0 lf 1022,6 hPa 0,0 l/m 0 min 0 min 0 W/m 16,7 km/h (3 Bft) 82,98 %
26.03.2017 21:44 10,9 C 10,0 C 6,1 C 66 % 0 lf 1022,5 hPa 0,0 l/m 0 min 0 min 0 W/m 12,6 km/h (3 Bft) 95,74 %
26.03.2017 21:46 10,8 C 10,0 C 6,1 C 66 % 0 lf 1022,5 hPa 0,0 l/m 0 min 0 min 0 W/m 14,6 km/h (3 Bft) 86,96 %
26.03.2017 21:48 10,8 C 10,0 C 6,1 C 66 % 0 lf 1022,6 hPa 0,0 l/m 0 min 0 min 0 W/m 14,6 km/h (3 Bft) 93,62 %
26.03.2017 21:50 10,8 C 10,0 C 6,1 C 66 % 0 lf 1022,6 hPa 0,0 l/m 0 min 0 min 0 W/m 12,6 km/h (3 Bft) 95,74 %
26.03.2017 21:52 10,7 C 10,0 C 6,1 C 66 % 0 lf 1022,5 hPa 0,0 l/m 0 min 0 min 0 W/m 6,3 km/h (2 Bft) 95,74 %
26.03.2017 21:54 10,7 C 10,0 C 6,1 C 67 % 0 lf 1022,6 hPa 0,0 l/m 0 min 0 min 0 W/m 12,6 km/h (3 Bft) 91,49 %
26.03.2017 21:56 10,7 C 9,4 C 6,1 C 67 % 0 lf 1022,6 hPa 0,0 l/m 0 min 0 min 3 W/m 8,4 km/h (2 Bft) 95,74 %
26.03.2017 21:58 10,6 C 9,4 C 6,1 C 67 % 0 lf 1022,6 hPa 0,0 l/m 0 min 0 min 0 W/m 6,3 km/h (2 Bft) 93,48 %
26.03.2017 22:00 10,6 C 9,4 C 6,1 C 67 % 0 lf 1022,7 hPa 0,0 l/m 0 min 0 min 0 W/m 14,6 km/h (3 Bft) 91,49 %
26.03.2017 22:02 10,5 C 9,4 C 6,1 C 67 % 0 lf 1022,7 hPa 0,0 l/m 0 min 0 min 3 W/m 6,3 km/h (2 Bft) 87,23 %
26.03.2017 22:04 10,5 C 9,4 C 5,6 C 67 % 0 lf 1022,7 hPa 0,0 l/m 0 min 0 min 0 W/m 10,5 km/h (2 Bft) 95,74 %
26.03.2017 22:06 10,4 C 9,4 C 5,6 C 68 % 0 lf 1022,8 hPa 0,0 l/m 0 min 0 min 1 W/m 10,5 km/h (2 Bft) 93,62 %
26.03.2017 22:08 10,4 C 9,4 C 6,1 C 68 % 0 lf 1022,8 hPa 0,0 l/m 0 min 0 min 0 W/m 10,5 km/h (2 Bft) 95,65 %
26.03.2017 22:10 10,4 C 9,4 C 6,1 C 68 % 0 lf 1022,8 hPa 0,0 l/m 0 min 0 min 0 W/m 10,5 km/h (2 Bft) 93,62 %
26.03.2017 22:12 10,3 C 9,4 C 6,1 C 68 % 0 lf 1022,8 hPa 0,0 l/m 0 min 0 min 0 W/m 12,6 km/h (3 Bft) 93,62 %
26.03.2017 22:14 10,3 C 9,4 C 6,7 C 68 % 0 lf 1022,8 hPa 0,0 l/m 0 min 0 min 0 W/m 10,5 km/h (2 Bft) 93,62 %
26.03.2017 22:16 10,3 C 9,4 C 6,7 C 69 % 0 lf 1022,8 hPa 0,0 l/m 0 min 0 min 1 W/m 10,5 km/h (2 Bft) 91,49 %
26.03.2017 22:18 10,2 C 9,4 C 6,7 C 69 % 0 lf 1022,8 hPa 0,0 l/m 0 min 0 min 5 W/m 18,8 km/h (3 Bft) 91,49 %
26.03.2017 22:20 10,2 C 9,4 C 6,1 C 69 % 0 lf 1022,8 hPa 0,0 l/m 0 min 0 min 5 W/m 10,5 km/h (2 Bft) 89,13 %
26.03.2017 22:22 10,1 C 9,4 C 6,1 C 70 % 0 lf 1022,8 hPa 0,0 l/m 0 min 0 min 5 W/m 16,7 km/h (3 Bft) 80,85 %
26.03.2017 22:24 10,1 C 9,4 C 6,7 C 70 % 0 lf 1022,8 hPa 0,0 l/m 0 min 0 min 0 W/m 18,8 km/h (3 Bft) 78,72 %
26.03.2017 22:26 10,1 C 9,4 C 6,7 C 70 % 0 lf 1022,8 hPa 0,0 l/m 0 min 0 min 0 W/m 18,8 km/h (3 Bft) 85,11 %
26.03.2017 22:28 10,1 C 9,4 C 6,7 C 70 % 0 lf 1022,8 hPa 0,0 l/m 0 min 0 min 0 W/m 14,6 km/h (3 Bft) 87,23 %
26.03.2017 22:30 10,0 C 9,4 C 6,7 C 71 % 0 lf 1022,8 hPa 0,0 l/m 0 min 0 min 0 W/m 16,7 km/h (3 Bft) 89,36 %
26.03.2017 22:33 10,0 C 9,4 C 6,7 C 71 % 0 lf 1022,9 hPa 0,0 l/m 0 min 0 min 0 W/m 16,7 km/h (3 Bft) 91,43 %
26.03.2017 22:34 9,9 C 9,4 C 6,7 C 71 % 0 lf 1022,9 hPa 0,0 l/m 0 min 0 min 0 W/m 16,7 km/h (3 Bft) 95,65 %
26.03.2017 22:36 9,9 C 9,4 C 6,7 C 71 % 0 lf 1022,9 hPa 0,0 l/m 0 min 0 min 0 W/m 18,8 km/h (3 Bft) 87,23 %
26.03.2017 22:38 9,9 C 9,4 C 6,7 C 72 % 0 lf 1022,8 hPa 0,0 l/m 0 min 0 min 5 W/m 25,1 km/h (4 Bft) 95,74 %
26.03.2017 22:40 9,9 C 10,0 C 6,7 C 72 % 0 lf 1022,9 hPa 0,0 l/m 0 min 0 min 0 W/m 27,2 km/h (4 Bft) 93,62 %
26.03.2017 22:42 9,9 C 10,0 C 6,7 C 72 % 0 lf 1023,0 hPa 0,0 l/m 0 min 0 min 0 W/m 18,8 km/h (3 Bft) 89,13 %
26.03.2017 22:44 9,9 C 10,0 C 6,7 C 72 % 0 lf 1023,0 hPa 0,0 l/m 0 min 0 min 0 W/m 20,9 km/h (4 Bft) 95,74 %
26.03.2017 22:46 9,9 C 10,0 C 6,7 C 73 % 0 lf 1023,0 hPa 0,0 l/m 0 min 0 min 0 W/m 18,8 km/h (3 Bft) 91,49 %
26.03.2017 22:48 9,9 C 10,0 C 6,7 C 73 % 0 lf 1022,9 hPa 0,0 l/m 0 min 0 min 0 W/m 16,7 km/h (3 Bft) 89,36 %
26.03.2017 22:50 9,9 C 10,0 C 6,7 C 73 % 0 lf 1023,0 hPa 0,0 l/m 0 min 0 min 0 W/m 20,9 km/h (4 Bft) 97,87 %
26.03.2017 22:52 9,8 C 10,0 C 7,2 C 73 % 0 lf 1022,9 hPa 0,0 l/m 0 min 0 min 0 W/m 18,8 km/h (3 Bft) 89,36 %
26.03.2017 22:54 9,8 C 10,0 C 6,7 C 73 % 0 lf 1022,9 hPa 0,0 l/m 0 min 0 min 5 W/m 16,7 km/h (3 Bft) 95,74 %
26.03.2017 22:56 9,8 C 10,0 C 7,2 C 73 % 0 lf 1022,9 hPa 0,0 l/m 0 min 0 min 5 W/m 14,6 km/h (3 Bft) 91,30 %
26.03.2017 22:58 9,8 C 10,0 C 7,2 C 73 % 0 lf 1023,0 hPa 0,0 l/m 0 min 0 min 5 W/m 14,6 km/h (3 Bft) 95,74 %
26.03.2017 23:00 9,8 C 10,0 C 7,2 C 73 % 0 lf 1022,9 hPa 0,0 l/m 0 min 0 min 5 W/m 14,6 km/h (3 Bft) 95,74 %
26.03.2017 23:02 9,8 C 10,0 C 6,7 C 73 % 0 lf 1023,0 hPa 0,0 l/m 0 min 0 min 5 W/m 10,5 km/h (2 Bft) 93,62 %
26.03.2017 23:04 9,8 C 9,4 C 6,7 C 73 % 0 lf 1023,0 hPa 0,0 l/m 0 min 0 min 5 W/m 12,6 km/h (3 Bft) 93,62 %
26.03.2017 23:06 9,8 C 9,4 C 6,1 C 73 % 0 lf 1023,0 hPa 0,0 l/m 0 min 0 min 5 W/m 8,4 km/h (2 Bft) 82,61 %
26.03.2017 23:08 9,8 C 9,4 C 5,6 C 73 % 0 lf 1022,9 hPa 0,0 l/m 0 min 0 min 5 W/m 10,5 km/h (2 Bft) 93,62 %
26.03.2017 23:10 9,8 C 9,4 C 6,1 C 73 % 0 lf 1023,0 hPa 0,0 l/m 0 min 0 min 0 W/m 10,5 km/h (2 Bft) 91,49 %
26.03.2017 23:12 9,7 C 9,4 C 6,1 C 73 % 0 lf 1023,0 hPa 0,0 l/m 0 min 0 min 0 W/m 12,6 km/h (3 Bft) 87,23 %
26.03.2017 23:14 9,7 C 9,4 C 6,1 C 73 % 0 lf 1022,9 hPa 0,0 l/m 0 min 0 min 0 W/m 10,5 km/h (2 Bft) 93,62 %
26.03.2017 23:16 9,7 C 9,4 C 6,7 C 74 % 0 lf 1023,0 hPa 0,0 l/m 0 min 0 min 0 W/m 12,6 km/h (3 Bft) 89,36 %
26.03.2017 23:18 9,7 C 9,4 C 6,7 C 74 % 0 lf 1023,0 hPa 0,0 l/m 0 min 0 min 2 W/m 14,6 km/h (3 Bft) 93,62 %
26.03.2017 23:20 9,7 C 9,4 C 6,7 C 74 % 0 lf 1023,0 hPa 0,0 l/m 0 min 0 min 0 W/m 10,5 km/h (2 Bft) 91,30 %
26.03.2017 23:22 9,7 C 9,4 C 6,1 C 74 % 0 lf 1023,0 hPa 0,0 l/m 0 min 0 min 0 W/m 10,5 km/h (2 Bft) 97,87 %
26.03.2017 23:24 9,7 C 9,4 C 6,7 C 74 % 0 lf 1023,0 hPa 0,0 l/m 0 min 0 min 0 W/m 12,6 km/h (3 Bft) 93,62 %
26.03.2017 23:26 9,7 C 9,4 C 6,1 C 74 % 0 lf 1023,0 hPa 0,0 l/m 0 min 0 min 0 W/m 6,3 km/h (2 Bft) 93,62 %
26.03.2017 23:28 9,6 C 8,9 C 5,6 C 74 % 0 lf 1023,0 hPa 0,0 l/m 0 min 0 min 0 W/m 4,2 km/h (1 Bft) 97,87 %
26.03.2017 23:30 9,6 C 8,9 C 5,6 C 73 % 0 lf 1023,0 hPa 0,0 l/m 0 min 0 min 0 W/m 6,3 km/h (2 Bft) 97,83 %
26.03.2017 23:32 9,6 C 8,9 C 5,0 C 73 % 0 lf 1023,0 hPa 0,0 l/m 0 min 0 min 0 W/m 8,4 km/h (2 Bft) 91,49 %
26.03.2017 23:34 9,6 C 8,3 C 5,0 C 73 % 0 lf 1023,0 hPa 0,0 l/m 0 min 0 min 0 W/m 12,6 km/h (3 Bft) 91,49 %
26.03.2017 23:36 9,6 C 8,9 C 5,0 C 73 % 0 lf 1023,0 hPa 0,0 l/m 0 min 0 min 0 W/m 10,5 km/h (2 Bft) 91,49 %
26.03.2017 23:38 9,5 C 8,3 C 5,0 C 73 % 0 lf 1023,0 hPa 0,0 l/m 0 min 0 min 4 W/m 10,5 km/h (2 Bft) 93,62 %
26.03.2017 23:40 9,4 C 8,3 C 5,0 C 73 % 0 lf 1023,0 hPa 0,0 l/m 0 min 0 min 0 W/m 10,5 km/h (2 Bft) 95,74 %
26.03.2017 23:42 9,4 C 8,3 C 4,4 C 74 % 0 lf 1023,0 hPa 0,0 l/m 0 min 0 min 0 W/m 6,3 km/h (2 Bft) 95,65 %
26.03.2017 23:44 9,4 C 8,9 C 4,4 C 74 % 0 lf 1023,0 hPa 0,0 l/m 0 min 0 min 0 W/m 6,3 km/h (2 Bft) 89,36 %
26.03.2017 23:46 9,4 C 8,3 C 4,4 C 74 % 0 lf 1023,0 hPa 0,0 l/m 0 min 0 min 0 W/m 6,3 km/h (2 Bft) 93,62 %
26.03.2017 23:48 9,3 C 8,3 C 4,4 C 74 % 0 lf 1023,0 hPa 0,0 l/m 0 min 0 min 4 W/m 6,3 km/h (2 Bft) 89,36 %
26.03.2017 23:50 9,3 C 7,8 C 4,4 C 74 % 0 lf 1023,0 hPa 0,0 l/m 0 min 0 min 0 W/m 4,2 km/h (1 Bft) 93,62 %
26.03.2017 23:52 9,3 C 7,8 C 4,4 C 74 % 0 lf 1023,1 hPa 0,0 l/m 0 min 0 min 0 W/m 8,4 km/h (2 Bft) 97,87 %
26.03.2017 23:54 9,2 C 7,8 C 4,4 C 74 % 0 lf 1023,0 hPa 0,0 l/m 0 min 0 min 0 W/m 8,4 km/h (2 Bft) 91,30 %
26.03.2017 23:56 9,2 C 7,8 C 4,4 C 74 % 0 lf 1023,0 hPa 0,0 l/m 0 min 0 min 0 W/m 10,5 km/h (2 Bft) 93,62 %
26.03.2017 23:58 9,1 C 7,8 C 4,4 C 74 % 0 lf 1023,0 hPa 0,0 l/m 0 min 0 min 0 W/m 6,3 km/h (2 Bft) 95,74 %
_ Min-Zeit 07:54 06:56 06:26 17:30 00:00 17:46 - - - - 06:24 04:30
Minimum _ 4,2 C 3,3 C 1,7 C 46 % 0 lf 1021,6 hPa - - - - 2,1 km/h (1 Bft) 57,45 %
_ Max-Zeit 17:46 15:34 15:36 08:52 05:56 09:34 00:00 07:40 00:00 13:02 00:04 01:30
Maximum _ 16,7 C 26,1 C 17,8 C 94 % 1 lf 1024,6 hPa 0,0 l/m 2 min 0 min 882 W/m 31,4 km/h
O-NO (5 Bft)
100,00 %
Durchschnitt _ 10,1 C 12,7 C 8,4 C 71 % 0 lf 1023,1 hPa #0,0 l/m #12:06 h #0 min. 320 W/m 15,0 km/h (3 Bft) 91,31 %
© 2017 W. Hausmann